GFSMA_sfc_wetblb_024.txt.gz
Wetbulb
52.50 52.33 51.81 51.71 51.37 50.56 49.87 49.31 49.09 48.87 47.51 47.59 47.59 47.13 46.74 47.16 47.82 52.83 51.35 56.94 56.85 58.61 59.85 60.61 61.02 61.77 62.42 63.01 64.53 65.37 65.12 66.33 67.75 69.59 70.72 70.83 69.95 69.49 69.34 69.08 68.59 68.14 67.33
52.78 52.18 51.57 51.37 50.73 50.37 49.92 49.53 48.48 47.99 47.40 46.84 47.41 47.38 46.73 46.72 47.39 48.24 50.82 51.60 55.62 55.72 56.51 57.42 58.05 58.83 59.70 60.20 60.57 61.12 61.39 62.18 63.75 66.03 67.54 69.14 70.39 70.61 70.73 70.11 69.08 68.33 67.91
53.01 52.52 51.38 50.78 50.51 50.15 49.43 48.41 46.81 47.21 47.25 48.17 46.14 46.63 47.55 46.69 47.51 47.02 49.09 50.22 51.97 55.15 55.11 54.52 55.30 56.08 57.23 57.91 58.17 58.27 58.54 59.35 60.72 61.73 62.87 64.12 66.79 69.27 70.08 70.52 69.81 69.03 68.54
54.02 52.26 51.66 51.05 51.14 50.20 49.21 48.79 48.17 47.33 46.72 46.48 45.71 46.39 46.33 47.16 47.00 46.05 48.08 48.53 48.72 50.13 53.35 53.22 53.02 53.47 54.15 55.61 56.61 57.27 57.49 58.30 58.83 59.12 59.77 61.03 62.74 64.81 68.03 69.48 70.14 69.84 69.18
54.37 52.46 51.93 51.50 51.00 49.94 49.06 49.15 48.10 47.76 46.71 46.70 47.33 45.92 46.23 46.21 46.48 48.51 46.79 48.05 48.53 48.46 48.31 52.91 52.40 53.46 53.51 53.44 54.60 55.65 56.37 57.46 58.33 58.69 58.88 59.20 59.91 62.27 63.46 66.48 68.90 69.28 69.90
53.43 52.06 51.89 51.13 50.62 49.96 48.87 48.47 47.25 47.27 46.64 46.41 48.67 46.77 44.69 46.00 46.47 46.10 45.22 48.28 47.94 48.31 48.14 48.23 47.50 48.78 54.93 53.36 53.52 54.66 55.06 56.34 57.16 57.64 58.37 59.11 59.65 59.79 61.79 63.18 64.63 65.90 69.14
52.92 51.80 51.42 51.00 50.28 49.22 48.62 48.05 46.92 46.17 45.19 45.49 43.75 44.18 45.38 45.24 44.64 45.52 46.37 45.98 46.11 46.99 47.07 47.47 47.67 47.34 47.62 53.42 53.82 53.94 54.50 55.34 55.64 56.73 57.95 58.59 59.24 59.59 59.98 61.00 62.06 63.13 65.15
53.04 52.24 51.26 50.42 49.89 49.39 48.64 47.97 46.88 45.44 45.86 45.88 42.05 41.74 39.65 42.93 43.39 44.33 45.19 45.52 44.12 45.32 45.81 46.56 45.69 45.73 46.01 46.97 49.23 54.50 53.85 53.34 54.34 55.65 56.84 58.03 58.81 59.32 59.87 60.11 61.02 61.71 62.34
53.13 52.66 51.13 50.44 49.51 49.24 48.05 47.59 47.34 46.45 43.74 44.35 43.95 41.64 38.77 37.47 40.37 43.19 42.84 43.81 43.63 43.67 44.25 44.87 45.47 46.23 45.65 45.29 49.70 51.42 55.42 52.95 53.92 54.64 55.80 56.93 58.01 58.89 59.34 59.80 60.28 61.02 61.17
52.73 52.52 51.64 50.52 49.98 49.00 48.31 48.20 49.01 46.86 46.05 43.72 43.15 45.47 41.62 40.78 37.62 36.94 42.08 42.36 43.60 43.52 42.78 43.96 44.30 44.92 44.88 45.07 50.12 54.27 54.75 54.74 53.30 53.67 54.93 56.01 56.97 57.34 58.26 59.01 59.60 60.14 60.94
52.86 52.44 51.49 50.60 49.73 49.87 48.17 48.22 46.85 46.68 45.88 44.14 43.20 41.95 40.98 41.06 40.01 38.34 36.48 39.77 42.11 42.65 42.98 42.73 43.16 43.82 44.94 45.50 45.82 49.44 54.23 55.04 53.51 53.76 54.15 55.00 55.78 56.52 57.32 58.24 58.97 59.60 60.18
52.57 52.03 51.57 51.04 50.00 49.78 48.41 48.32 46.69 45.93 45.40 44.52 44.03 43.39 42.19 40.62 39.72 38.93 37.34 37.64 37.79 39.96 41.74 42.56 42.68 43.74 44.76 45.37 49.90 54.85 56.10 54.84 53.61 53.31 53.66 54.32 55.17 55.75 56.58 57.33 58.29 59.22 59.63
51.40 51.31 50.97 50.03 49.91 49.10 48.16 47.67 46.38 45.45 45.08 43.68 43.12 42.87 42.99 42.33 42.38 40.77 38.90 37.17 37.11 38.80 40.20 41.80 42.83 43.56 46.32 44.81 46.22 54.22 55.26 54.84 54.33 53.46 53.60 53.95 54.20 54.78 55.26 55.40 56.88 57.81 59.19
51.85 51.72 50.99 50.28 49.86 48.84 48.53 47.47 46.16 45.50 44.96 44.48 43.68 43.01 43.03 43.05 43.06 42.03 40.35 38.36 35.43 36.66 38.18 38.80 41.66 43.08 43.85 44.81 48.54 55.30 47.89 53.62 54.76 55.08 53.91 53.30 53.48 54.02 54.64 55.12 55.90 57.00 57.45
53.13 51.24 50.84 49.79 49.34 49.08 48.36 46.83 46.15 45.28 44.58 44.04 44.06 43.85 42.81 43.00 42.78 42.35 41.65 40.59 37.60 33.52 34.40 37.72 38.94 42.52 43.91 44.74 47.23 46.99 45.65 50.81 53.07 54.65 55.27 54.61 53.30 53.34 54.13 54.37 55.45 56.21 56.88
52.75 51.09 50.28 49.80 48.73 48.60 48.13 46.73 45.28 45.19 43.83 43.67 44.37 43.58 42.83 42.78 42.48 42.28 41.94 40.95 39.84 37.63 35.51 39.19 40.69 42.41 44.20 46.98 47.42 47.41 45.54 52.61 52.59 52.91 53.82 53.83 54.21 53.44 53.45 53.93 54.70 55.12 55.98
53.30 50.88 50.41 49.62 48.68 48.12 48.06 46.81 45.83 44.72 43.93 43.32 43.41 43.25 43.01 42.94 41.64 41.53 41.20 40.68 39.78 39.60 37.89 39.91 42.32 43.32 42.47 42.51 43.96 44.27 46.37 44.89 46.39 51.75 52.48 53.65 53.84 53.88 53.50 54.33 54.51 54.51 54.93
54.09 52.16 50.40 49.52 48.89 48.19 47.80 46.62 45.45 45.93 44.10 43.04 43.18 42.68 42.41 44.94 41.14 41.40 40.87 40.18 40.39 41.18 40.26 39.27 40.02 40.96 41.56 42.33 42.45 43.43 46.06 47.45 46.05 50.52 52.19 52.63 53.66 53.91 54.24 53.96 54.01 54.32 54.51
53.81 52.37 50.18 48.95 48.51 47.88 47.12 46.62 45.86 44.93 43.54 43.01 42.90 42.45 42.16 41.92 40.33 40.00 40.30 40.50 41.32 44.10 41.16 39.73 40.30 40.51 41.11 41.97 42.70 42.91 43.81 44.83 46.26 50.48 52.10 52.71 52.60 52.36 53.84 54.00 54.03 54.10 54.32
53.03 51.40 49.72 49.10 48.48 47.78 47.19 46.50 45.68 43.56 43.37 43.03 43.60 42.79 42.32 41.88 40.24 39.63 40.95 40.71 41.66 40.14 40.13 39.39 39.80 39.88 40.78 41.73 42.56 42.06 42.29 44.70 45.42 48.31 50.13 50.79 51.68 52.20 53.02 53.98 54.30 54.15 53.44
51.37 51.44 49.34 48.49 47.93 47.30 47.20 45.70 45.11 43.92 41.53 41.35 42.06 42.82 42.85 44.23 47.78 45.55 43.78 41.47 41.03 40.10 39.35 38.84 39.44 39.68 40.62 39.71 39.59 41.52 41.87 43.96 45.05 45.98 46.08 46.97 47.74 48.68 49.04 51.47 53.40 53.79 53.55
49.45 49.91 48.66 47.82 46.78 47.78 51.39 51.44 46.90 43.34 42.43 41.49 40.72 41.23 41.85 48.59 46.81 49.16 49.38 49.38 46.30 39.90 38.93 38.98 41.31 40.46 40.81 40.87 42.08 42.86 43.64 42.97 41.12 47.19 46.14 45.96 48.15 47.53 49.39 50.23 52.54 53.66 53.80
48.40 48.49 48.18 47.09 46.03 45.93 53.06 53.18 51.15 43.07 41.63 40.57 40.77 41.12 42.28 44.93 47.55 42.89 46.16 47.63 47.10 47.97 47.54 43.34 42.10 40.79 40.71 41.26 42.87 43.13 43.81 44.20 44.59 47.23 47.31 45.14 48.11 47.35 49.07 51.42 53.14 53.75 53.89
47.31 48.08 47.62 46.11 45.42 45.19 53.45 53.33 51.86 42.07 41.17 41.17 41.09 41.23 41.39 41.34 42.65 43.08 41.40 40.68 41.31 42.03 43.24 44.57 43.00 42.51 43.31 45.03 46.43 46.86 46.08 45.87 46.63 47.32 48.22 43.85 47.41 46.81 48.71 50.55 53.19 53.43 53.56
46.96 47.83 46.82 45.25 44.60 44.19 52.88 52.77 48.43 41.67 41.23 41.20 42.66 42.52 42.06 41.32 46.08 46.70 41.84 40.61 40.53 41.96 47.45 48.31 48.27 48.42 49.36 49.94 49.98 46.97 45.02 43.87 42.78 44.62 49.00 47.35 47.15 46.72 48.50 49.35 51.16 53.18 52.84
47.04 47.85 45.96 45.85 47.65 45.49 52.20 52.07 46.78 41.80 39.74 41.14 41.61 42.22 49.05 43.22 46.99 46.75 41.08 40.14 39.47 40.54 40.41 41.73 42.49 44.65 46.99 46.81 48.96 46.95 45.92 43.73 43.92 46.32 50.53 47.48 48.21 48.46 46.86 49.87 51.23 52.02 52.05

GFSMA_sfc_wetblb_027.txt.gz
Wetbulb
52.06 52.47 50.97 50.98 49.39 48.30 47.07 46.75 46.80 46.67 45.24 45.44 45.46 45.24 44.43 46.59 50.51 51.10 51.32 58.55 59.41 59.96 60.51 61.08 61.80 62.37 62.81 63.14 64.29 64.18 64.57 65.31 67.49 68.70 70.04 70.62 70.39 69.34 69.57 69.24 68.96 68.53 67.79
50.92 49.87 48.98 48.85 48.37 47.43 47.30 47.02 46.39 45.71 45.02 44.79 45.70 45.80 45.05 44.89 47.92 49.51 50.14 51.83 57.05 56.90 57.32 57.89 58.39 59.36 60.25 60.56 60.57 60.68 60.95 61.71 62.66 63.57 65.23 65.94 68.50 70.19 70.20 70.56 69.29 68.98 68.47
50.39 49.58 48.64 48.02 47.76 47.62 47.50 46.27 45.02 45.13 44.88 45.66 43.92 44.46 45.57 44.89 44.96 47.91 49.51 49.82 52.23 56.32 55.63 55.17 55.54 56.34 57.32 57.81 57.94 57.95 58.21 58.77 59.45 60.49 61.22 62.38 64.09 65.68 68.70 69.85 69.79 69.34 68.93
51.49 49.59 48.74 48.33 48.45 47.60 46.55 45.48 44.62 44.28 44.15 44.10 43.19 43.48 44.17 45.22 45.08 44.59 47.58 48.56 48.80 50.00 53.87 53.99 53.48 53.58 54.18 54.92 56.02 56.67 56.98 57.91 58.52 58.75 58.82 59.51 60.38 62.61 64.25 66.62 69.36 69.59 69.66
52.61 49.97 49.20 48.79 48.72 47.16 46.18 46.75 45.42 44.85 43.77 43.96 44.87 43.83 43.27 43.76 44.55 46.38 44.97 46.84 46.71 47.58 48.39 53.37 53.47 53.18 54.29 53.25 54.11 54.72 55.71 56.87 57.74 58.06 58.48 58.95 59.38 59.89 61.70 63.84 65.39 67.04 68.16
52.24 50.25 49.47 49.16 48.01 46.82 46.13 45.68 45.03 44.59 44.75 44.52 48.06 45.41 41.76 42.95 43.74 43.64 43.83 46.64 46.37 47.15 46.65 46.92 46.11 47.32 54.38 55.00 53.29 54.10 54.40 55.49 55.73 56.96 57.85 58.62 59.19 59.75 60.01 60.72 62.45 63.82 65.06
51.82 50.24 49.56 48.56 47.90 47.67 46.55 45.90 44.52 43.96 43.19 43.02 42.12 41.68 42.42 42.57 42.31 43.10 43.59 43.81 44.78 46.31 45.63 46.53 45.45 45.72 46.88 53.30 53.03 53.89 54.69 54.68 54.41 55.65 56.69 57.90 58.72 59.20 59.80 60.30 60.33 61.67 62.67
52.21 50.85 50.15 48.86 47.69 46.78 46.06 45.54 44.62 43.08 43.15 43.05 40.49 39.23 37.62 41.20 40.72 42.21 42.64 44.28 42.79 44.53 44.90 46.07 44.63 44.97 44.76 45.31 47.67 54.62 54.40 53.40 53.46 54.75 55.22 56.48 57.45 58.58 59.41 59.82 60.33 60.64 61.44
52.26 52.41 50.60 49.73 48.31 47.99 47.28 45.45 44.55 43.84 42.26 42.76 41.80 40.39 36.80 36.52 38.27 40.33 40.40 41.87 41.35 42.26 42.28 43.30 44.00 44.25 43.78 43.52 49.12 50.66 55.12 53.53 53.98 54.50 54.74 55.59 56.51 57.35 57.93 58.89 59.45 59.96 60.60
52.23 52.51 51.46 50.50 49.48 48.71 46.76 47.51 46.57 44.13 42.83 41.55 41.11 43.26 39.84 39.23 36.17 36.27 39.71 40.02 40.97 42.03 41.40 41.71 42.85 43.49 43.33 43.23 48.21 51.30 54.11 54.31 53.61 53.80 54.40 55.73 56.12 56.64 57.29 57.66 58.19 59.08 59.74
52.03 52.21 51.43 50.49 49.63 48.72 48.93 47.05 45.89 44.81 44.15 42.65 40.69 39.67 38.22 38.27 36.90 36.23 34.62 37.83 39.91 40.36 41.29 41.13 41.15 41.16 42.47 43.12 44.08 47.83 54.32 55.43 53.95 53.93 54.25 54.63 55.43 56.15 56.65 57.06 57.58 58.24 58.87
51.14 51.52 51.39 51.03 50.54 49.65 47.81 47.91 46.81 45.24 44.38 42.96 42.51 40.98 39.95 38.93 37.77 36.76 35.08 35.97 36.67 38.81 39.85 40.62 40.59 41.60 42.35 43.01 47.61 53.11 54.63 56.10 55.58 54.02 53.82 53.92 54.55 55.27 56.09 56.36 56.72 56.70 58.41
51.94 49.50 50.90 49.92 49.31 49.58 49.10 48.21 46.08 45.83 44.97 44.41 42.08 41.40 41.45 41.17 40.44 38.96 37.52 35.77 36.05 37.37 38.71 39.59 40.94 41.08 43.95 42.62 43.96 52.18 53.81 54.49 55.66 53.82 53.77 53.97 54.25 54.61 54.64 55.32 55.96 56.11 56.47
52.78 52.79 50.84 50.93 50.41 49.33 48.92 48.08 47.68 46.37 44.65 43.97 41.76 41.29 41.15 41.29 41.13 40.32 38.79 37.11 34.50 35.03 36.24 37.72 39.50 40.73 41.51 42.54 46.17 53.41 47.24 52.82 53.25 54.15 53.75 53.29 53.45 53.65 53.92 54.67 55.00 55.35 55.35
53.81 52.13 50.64 50.50 49.70 48.51 48.82 48.06 47.40 45.79 45.61 43.60 42.38 41.57 41.29 41.15 41.08 40.63 40.10 39.23 36.90 32.66 33.02 36.14 37.36 39.71 42.03 43.01 45.84 46.31 44.83 49.80 52.94 53.07 53.90 53.89 52.93 53.07 53.52 54.03 54.45 54.58 54.98
52.18 52.02 51.20 50.20 49.17 48.45 48.54 47.37 46.93 45.68 44.52 43.13 43.56 42.07 41.08 40.98 40.80 40.51 40.19 39.38 38.33 36.63 33.78 36.97 38.39 40.18 42.28 45.59 45.98 46.36 44.74 50.35 50.91 51.66 52.80 53.54 53.28 52.61 53.07 53.30 53.72 53.54 54.79
51.11 52.86 51.48 50.23 48.79 47.87 48.00 47.13 46.49 45.46 44.54 43.28 42.87 43.04 41.79 41.53 40.53 40.18 39.86 39.17 38.39 37.63 35.48 37.32 39.72 41.30 40.96 41.13 42.78 42.75 43.89 42.67 43.63 51.17 51.87 52.78 53.29 53.50 53.57 52.98 53.28 53.64 54.53
49.90 52.13 51.09 50.41 49.05 48.61 47.92 47.11 45.63 46.15 44.40 42.95 42.72 42.34 42.37 44.01 40.08 39.77 39.40 38.69 38.53 38.51 38.01 36.40 38.40 39.57 39.77 40.76 40.71 40.49 43.46 45.36 44.48 49.21 51.31 51.60 52.94 53.51 54.10 53.89 53.93 53.92 54.14
49.08 49.91 51.21 50.21 49.85 48.77 48.16 47.00 46.40 45.91 45.03 44.13 42.97 42.78 42.07 40.69 38.76 38.68 38.92 38.72 38.50 41.40 39.17 38.32 37.79 39.26 39.33 39.74 40.07 40.46 41.26 42.91 44.89 49.06 50.88 51.91 53.11 54.02 54.18 53.86 53.30 53.85 54.21
48.41 49.32 49.03 51.12 50.15 49.10 48.15 46.86 46.10 45.10 44.13 43.88 43.80 42.60 41.93 41.04 39.47 38.73 38.90 38.46 39.54 39.05 38.74 38.19 38.15 38.30 38.51 40.35 39.64 39.88 39.76 42.05 42.24 45.55 48.67 50.33 51.30 51.93 52.53 53.20 53.06 53.31 53.26
47.92 48.69 48.97 49.53 50.01 48.89 47.96 46.13 45.57 43.64 42.89 42.41 42.65 43.19 42.35 43.54 47.96 43.27 40.92 39.77 39.96 39.08 38.73 38.12 37.72 38.25 38.92 38.68 37.08 40.07 39.66 40.86 42.08 43.63 44.22 45.43 46.29 47.00 48.06 50.65 51.34 52.60 52.82
47.21 47.83 48.07 48.49 48.73 48.65 51.59 51.20 46.82 43.10 43.27 42.11 41.46 40.71 41.93 48.57 48.55 49.97 49.66 49.25 44.41 40.31 38.77 37.61 38.45 38.41 39.09 39.59 40.86 40.26 39.83 40.50 39.22 45.70 44.90 45.22 47.46 46.65 47.71 48.44 50.89 51.79 52.29
46.79 46.20 47.34 47.89 48.08 48.22 53.10 52.82 50.49 43.97 42.03 41.87 40.66 40.04 41.10 45.39 46.27 42.61 48.46 49.91 48.59 47.93 47.18 40.53 38.08 38.75 39.55 40.64 39.46 40.50 41.14 42.40 43.06 46.41 46.78 44.79 47.62 46.83 48.39 48.94 51.53 52.54 53.16
45.58 45.43 46.21 47.03 47.73 47.48 53.38 53.43 51.71 42.71 41.55 40.27 40.26 39.53 39.54 39.84 42.51 41.57 40.12 39.68 39.96 40.67 41.85 43.06 41.41 40.76 40.40 42.54 42.94 44.48 45.15 45.52 46.30 46.83 47.59 43.44 46.99 46.14 48.43 49.22 51.63 52.04 52.93
44.80 44.48 45.69 46.62 46.66 45.93 53.08 53.39 48.55 41.74 40.07 39.53 40.22 40.15 39.94 39.72 47.09 48.09 40.80 39.27 39.28 40.27 46.03 48.44 48.34 48.29 48.46 48.84 48.20 45.93 44.23 43.60 42.54 43.93 46.80 45.64 46.10 46.67 47.84 47.28 48.62 52.03 52.63
43.97 44.80 44.86 47.02 48.17 46.01 52.76 53.34 45.20 42.55 39.70 39.90 39.89 41.30 46.92 42.09 48.68 48.10 39.85 38.96 38.04 39.16 40.52 40.41 41.21 42.37 44.61 44.09 48.02 46.43 44.94 42.83 42.78 42.32 46.32 46.09 47.19 46.87 45.51 48.67 49.57 50.78 51.48

GFSMA_sfc_wetblb_030.txt.gz
Wetbulb
54.50 52.81 51.16 50.13 48.24 47.21 47.24 46.00 45.10 45.83 43.69 43.59 43.83 43.48 46.32 51.06 51.21 52.19 52.50 60.88 61.97 62.05 61.80 61.83 62.47 62.95 63.09 63.93 64.08 63.84 64.06 64.97 66.29 67.24 68.58 69.88 70.24 69.09 69.27 69.76 69.05 68.71 67.89
54.19 51.94 49.84 49.75 48.67 46.87 45.80 45.28 44.86 44.09 43.15 42.90 43.67 44.18 43.49 48.58 48.96 49.18 50.14 52.19 58.26 58.34 58.12 58.12 58.72 59.83 60.71 60.79 60.47 60.39 60.72 61.65 62.83 63.62 63.89 64.88 66.72 68.93 69.95 69.85 69.46 69.33 68.85
53.21 52.01 50.02 48.08 47.57 46.31 46.13 44.87 43.91 43.36 42.80 44.00 42.37 42.84 43.73 43.20 47.46 47.80 48.88 49.34 52.37 56.86 55.98 55.46 55.67 56.89 57.44 57.67 57.61 57.68 58.12 58.94 59.53 60.02 60.59 61.58 62.19 64.39 66.15 68.68 69.43 69.77 69.43
52.99 49.90 49.22 48.01 47.65 46.34 45.61 44.32 43.17 42.78 42.49 42.22 41.41 42.31 42.29 43.11 42.73 46.18 48.00 48.54 48.91 50.35 54.33 54.69 54.28 54.20 54.69 54.87 55.82 56.31 56.84 57.75 58.28 58.69 59.01 59.60 60.01 60.96 63.31 65.05 66.84 68.90 69.37
52.91 50.73 49.61 49.19 47.78 46.29 44.87 44.51 43.27 42.79 42.20 42.23 42.97 42.27 41.81 41.98 42.53 45.16 45.68 47.12 47.45 48.51 48.34 54.50 54.73 54.41 54.72 53.67 54.38 54.58 55.30 56.27 56.78 57.70 58.25 58.76 59.38 59.92 60.22 61.42 63.67 65.36 66.41
52.59 50.97 49.56 48.75 47.62 46.01 44.74 43.81 43.47 43.08 42.72 42.67 46.51 44.60 40.53 41.34 41.90 41.61 42.64 46.18 45.40 46.62 47.00 46.07 46.33 47.24 55.03 55.32 54.67 54.16 54.36 55.27 54.65 55.64 57.15 58.09 58.94 59.33 59.83 60.06 60.57 62.02 63.74
52.31 50.63 49.76 48.44 47.60 47.33 46.29 44.50 43.44 43.01 42.36 41.94 41.20 40.86 40.85 40.91 40.21 41.15 41.37 42.41 43.97 45.25 44.87 45.27 44.60 44.50 46.02 56.30 54.04 53.97 54.89 55.31 54.21 54.32 55.43 56.60 57.60 58.57 59.37 59.76 60.04 60.49 61.67
51.21 51.38 50.57 49.60 48.38 46.58 44.68 44.42 43.72 41.82 41.76 41.53 39.82 37.67 37.43 39.57 39.66 40.52 40.32 42.24 41.92 43.91 44.57 45.10 44.23 44.13 44.29 44.33 47.33 54.11 54.45 53.74 54.02 54.33 55.52 55.51 56.58 57.51 58.09 58.94 59.65 60.13 60.65
52.66 52.77 50.67 50.30 48.82 48.45 47.14 45.66 44.08 43.09 41.67 41.34 40.31 39.57 35.11 35.95 36.94 38.69 38.57 40.43 40.61 40.83 42.65 42.93 43.31 43.29 43.04 42.82 48.16 51.67 56.07 54.35 54.10 54.93 54.86 55.38 56.04 56.84 57.33 57.85 58.34 59.18 59.86
50.98 51.98 52.00 51.56 50.06 48.91 47.52 46.96 46.23 43.69 42.36 41.25 40.53 42.05 38.56 38.06 36.48 36.32 38.33 38.64 38.98 40.26 39.83 41.08 41.89 41.99 42.03 42.22 46.86 49.97 53.69 54.63 54.38 54.13 54.97 55.27 56.23 56.17 57.05 57.36 57.77 58.03 58.65
52.08 52.79 52.42 50.68 50.66 50.22 49.03 47.96 45.97 43.49 42.92 41.64 40.63 38.01 36.89 36.38 35.43 35.19 34.63 36.89 38.38 39.24 39.75 40.27 40.63 40.50 41.00 41.50 42.34 46.62 54.58 55.53 55.01 54.08 54.33 55.12 55.20 55.77 56.54 57.14 57.30 57.62 57.89
51.17 50.85 51.19 51.19 50.91 50.00 50.18 47.70 47.80 46.35 45.50 42.30 41.13 39.80 38.82 38.13 36.55 35.75 33.69 34.38 36.15 38.02 38.56 39.21 39.32 40.23 41.21 41.63 46.13 50.99 53.44 54.75 55.39 54.86 54.55 54.45 54.77 55.28 55.89 56.58 56.87 57.00 57.15
48.89 49.78 50.04 50.56 50.97 50.96 49.79 48.97 47.53 46.93 46.00 44.76 43.43 42.83 39.98 39.82 39.18 37.91 36.62 34.48 34.84 36.03 37.45 38.47 39.34 39.73 42.31 41.25 42.68 50.55 52.73 53.56 53.57 54.00 54.23 54.22 54.59 54.87 55.12 55.63 55.68 56.18 56.72
48.14 49.43 51.10 51.03 51.60 51.56 51.05 50.22 47.96 47.61 46.67 46.09 42.70 41.44 42.30 40.70 40.13 39.46 37.92 36.07 33.61 34.13 35.05 36.76 38.38 39.20 40.18 41.43 44.13 52.27 46.97 52.25 52.96 53.17 53.24 53.42 53.70 53.97 54.18 54.61 54.90 55.17 55.67
49.19 49.04 49.05 51.07 51.53 51.61 51.14 50.01 49.14 46.73 46.56 45.98 44.66 43.43 42.36 41.19 40.53 39.91 39.01 38.26 36.41 32.03 32.68 35.52 36.50 38.23 40.07 41.37 44.51 45.38 44.59 49.40 52.17 52.23 52.55 52.74 52.87 53.18 53.56 53.94 54.15 54.33 54.71
46.38 47.44 47.84 49.48 50.79 51.19 50.68 49.76 49.25 47.42 45.81 45.32 45.38 42.66 40.91 40.02 40.47 39.69 39.25 38.37 37.53 35.72 33.00 35.87 36.90 38.48 40.14 44.01 45.01 45.91 44.70 50.27 51.60 51.86 51.87 52.57 51.88 52.50 52.97 53.19 53.21 53.69 53.99
46.66 47.55 48.40 48.57 50.07 50.52 49.39 49.53 49.04 47.69 45.28 44.87 45.14 43.16 41.73 40.50 40.71 39.32 38.83 37.88 37.23 36.56 34.83 35.91 37.51 39.02 39.29 40.32 42.05 41.68 43.11 41.70 42.19 49.98 50.97 51.24 52.34 52.28 52.30 52.37 53.10 53.24 53.37
46.62 47.17 47.83 48.68 50.20 50.99 50.22 48.92 48.24 47.81 44.96 44.31 43.50 43.09 42.15 42.86 39.57 39.30 38.88 37.88 37.51 37.07 36.69 34.87 36.41 38.31 38.95 39.54 40.00 39.81 42.56 44.43 42.08 47.74 50.23 50.74 51.06 52.31 53.40 53.14 54.25 54.28 53.72
45.93 46.12 46.74 47.33 48.52 49.49 48.95 49.07 48.89 47.61 45.26 45.09 44.21 43.56 42.92 41.97 39.49 38.28 37.99 37.70 37.38 40.01 36.90 36.38 36.34 38.19 38.59 38.96 39.11 39.22 39.57 40.53 43.22 47.55 49.64 50.63 51.04 51.48 53.24 53.80 53.65 53.61 53.74
45.37 45.34 45.84 46.92 48.00 49.04 49.39 49.66 48.79 47.90 46.15 45.38 44.45 44.26 42.99 42.45 41.44 39.03 38.86 37.95 38.00 37.40 37.39 37.39 37.30 37.59 38.03 38.91 38.33 38.20 38.71 39.07 40.09 43.68 46.78 48.57 49.87 50.69 51.57 52.57 53.58 53.18 52.64
46.92 47.28 46.09 46.88 47.44 48.59 49.58 49.52 48.96 47.71 45.59 44.53 43.03 43.36 42.98 44.53 47.86 43.98 40.69 37.33 37.54 37.05 37.53 37.39 37.07 37.14 37.05 37.21 36.72 37.75 37.01 39.31 40.76 41.69 41.96 43.01 43.81 45.07 46.95 50.23 51.54 52.27 52.37
46.39 46.39 45.85 45.96 46.44 48.38 50.85 52.45 50.70 46.95 45.08 43.39 41.69 41.99 43.00 48.57 49.21 50.82 49.66 47.49 42.72 38.68 37.81 37.66 37.55 36.94 37.03 37.98 38.06 37.50 38.84 37.97 37.51 42.63 42.02 41.94 45.48 45.34 46.65 47.21 49.84 51.24 51.52
43.27 43.65 44.75 45.52 45.61 46.61 50.41 52.04 53.57 46.87 44.54 43.53 42.72 41.56 41.87 45.63 47.64 44.57 50.09 50.03 49.32 49.88 47.74 39.97 37.65 37.14 37.08 38.22 38.15 38.28 39.08 39.21 39.56 42.66 44.26 43.38 47.16 46.44 48.17 48.58 51.10 51.36 51.86
41.61 42.22 43.45 44.75 44.27 45.74 49.48 51.58 53.50 47.14 44.60 43.25 42.21 41.37 42.14 41.19 43.51 41.85 40.26 40.17 39.87 40.22 41.32 42.46 39.85 39.64 39.73 39.96 39.35 41.29 41.68 43.19 44.93 45.89 46.83 42.77 46.39 45.64 47.48 48.33 50.97 51.41 51.77
41.47 41.80 43.29 44.51 43.19 43.61 48.39 50.76 52.23 46.62 43.21 41.44 40.82 41.07 40.98 40.35 47.15 48.44 39.53 38.47 37.94 39.18 45.17 47.82 48.01 48.59 48.55 48.10 47.33 44.27 42.43 42.09 41.69 43.57 46.46 45.04 45.62 45.54 46.97 47.65 49.21 51.23 51.09
41.60 42.63 42.95 44.18 44.50 43.70 48.76 50.79 51.50 44.38 40.99 40.04 39.36 40.31 45.88 41.62 49.32 49.24 38.77 38.02 37.17 37.97 38.94 40.32 41.13 41.47 43.32 42.31 46.76 44.22 43.35 42.07 42.09 41.35 45.64 44.18 44.66 45.41 44.51 48.12 48.66 49.40 50.35

GFSMA_sfc_wetblb_033.txt.gz
Wetbulb
57.14 55.90 53.77 51.99 49.22 47.44 47.66 46.01 44.43 44.47 42.83 42.43 42.77 45.58 52.12 52.01 52.25 53.57 53.64 62.10 63.47 63.71 62.99 62.61 63.06 63.37 63.53 64.73 63.97 63.97 64.54 65.19 66.28 67.68 68.27 69.35 69.81 69.10 69.39 69.69 69.23 68.70 67.86
56.65 55.66 52.42 50.23 48.46 46.67 45.98 44.77 44.22 43.14 42.00 41.39 42.38 42.42 47.49 49.69 49.95 49.69 50.33 52.45 59.93 60.24 59.57 59.07 59.73 60.52 61.43 61.17 60.55 60.43 60.99 62.06 62.75 63.01 63.45 64.70 65.77 67.33 69.21 70.05 70.11 69.55 69.19
55.68 55.53 52.75 48.86 48.70 47.50 46.23 44.06 43.07 42.43 41.54 42.60 40.70 41.26 42.69 47.12 47.80 47.48 48.60 49.05 52.36 58.01 57.01 56.48 56.96 57.77 57.99 57.90 57.53 57.50 58.19 59.11 59.55 59.99 60.58 61.27 62.01 63.24 65.14 66.60 69.38 69.37 69.61
54.78 53.50 52.60 50.72 48.92 47.03 45.47 44.00 43.00 42.31 41.54 40.68 40.12 40.93 40.59 41.44 43.59 45.91 47.11 48.07 48.86 50.25 54.73 55.65 55.56 55.55 55.87 55.59 56.05 56.32 56.75 57.23 57.85 58.19 58.66 59.25 60.06 60.55 61.36 63.74 65.23 66.72 68.74
53.83 52.76 52.11 51.24 48.41 46.44 44.64 44.33 42.09 42.36 41.40 41.19 41.60 40.92 40.36 40.38 41.11 44.53 45.51 46.78 47.46 49.10 48.23 54.66 55.43 54.99 55.29 54.71 55.24 55.26 55.40 56.26 56.05 57.02 57.78 58.34 58.77 59.27 59.97 60.65 61.94 63.61 65.33
53.76 52.33 49.73 48.76 47.84 46.17 44.62 43.03 42.47 41.34 41.60 41.63 44.97 43.96 40.27 40.28 40.49 40.39 42.28 46.03 45.94 47.30 46.92 46.56 46.67 48.60 55.28 56.71 55.86 55.44 55.18 55.63 55.26 54.88 56.37 56.95 58.13 58.86 59.15 59.60 60.14 60.72 62.05
52.27 50.12 50.26 48.95 47.31 47.41 46.97 44.57 42.63 42.03 41.04 40.80 40.84 40.15 39.98 40.43 38.83 39.90 40.09 41.27 43.41 44.80 44.49 45.48 44.24 43.83 45.08 56.56 57.15 55.29 55.40 56.61 55.77 53.93 55.20 55.29 56.70 57.45 58.36 59.07 59.37 59.83 60.31
50.53 50.14 49.61 49.16 49.28 47.16 45.59 44.19 43.28 41.17 41.41 40.99 39.88 37.03 37.47 38.41 38.85 39.63 38.89 40.50 40.80 42.61 43.70 44.22 43.61 43.30 43.22 43.67 47.01 54.13 54.50 54.60 55.12 54.79 55.04 55.47 55.94 56.97 57.45 57.89 58.43 59.36 59.93
53.14 51.59 50.40 50.07 49.04 49.51 48.50 46.29 45.49 43.37 41.65 40.12 40.07 40.09 34.36 34.84 35.51 37.54 37.41 38.92 39.89 39.64 41.71 42.89 43.24 43.54 42.84 42.76 47.62 49.77 55.14 55.24 54.72 55.12 55.75 55.62 56.03 56.67 57.03 57.45 57.94 58.38 58.68
51.02 52.88 51.36 50.35 50.28 48.42 48.91 48.51 47.89 47.24 43.55 41.37 39.61 41.12 37.49 37.54 36.51 35.97 37.42 37.46 38.39 39.17 39.16 40.69 41.89 41.75 41.41 41.36 45.87 49.24 52.75 55.04 54.69 54.51 55.06 55.91 56.30 56.89 56.45 57.20 57.64 57.86 58.30
48.71 50.29 50.06 48.90 50.28 48.78 49.09 49.81 48.00 45.86 46.93 42.94 41.16 37.51 35.86 35.24 34.32 35.03 35.31 36.46 37.07 37.86 38.46 38.95 40.14 40.26 40.57 40.65 41.04 44.88 53.16 54.93 55.22 54.87 54.59 55.16 56.16 56.09 56.38 56.90 57.67 57.66 57.64
46.57 48.01 49.43 48.46 48.47 48.65 48.59 48.75 48.24 46.68 47.01 46.74 43.90 39.96 38.81 37.54 35.72 35.28 32.76 33.67 35.45 37.46 37.47 38.08 38.08 38.85 39.63 40.55 44.96 49.76 52.36 54.01 54.83 55.25 55.22 55.15 55.71 55.89 56.34 56.77 56.91 57.44 57.17
45.13 46.23 46.48 47.20 47.73 48.41 49.03 49.17 48.23 47.72 47.79 46.28 44.43 43.81 40.66 40.44 38.69 37.20 35.97 33.79 35.00 35.64 36.28 37.23 38.21 38.72 41.11 39.78 41.50 49.46 52.09 53.91 53.99 53.90 54.53 55.27 55.26 55.21 55.56 56.08 56.30 56.74 56.69
45.48 46.74 46.18 46.02 47.03 48.60 49.63 49.29 49.29 48.51 48.78 47.56 46.89 44.87 42.59 41.75 39.33 38.80 37.64 35.88 33.52 33.54 34.17 36.21 37.19 38.02 38.81 40.40 43.49 51.03 47.38 52.96 52.85 53.07 53.36 53.78 54.01 54.31 54.62 55.07 55.33 55.48 55.79
47.36 47.03 45.93 45.44 46.10 47.56 49.02 49.29 49.02 48.27 48.28 47.93 47.36 45.16 44.65 42.81 41.03 39.63 38.59 38.19 37.24 32.99 33.23 35.51 36.21 36.75 38.32 40.27 43.48 43.74 43.37 48.83 52.39 52.49 52.37 52.64 53.12 53.55 53.93 54.27 54.54 54.79 54.96
46.01 45.65 45.39 45.54 45.74 46.57 47.81 48.82 48.57 48.90 47.92 46.98 47.65 45.49 43.30 40.59 42.10 40.18 38.67 38.06 37.65 36.42 33.58 35.15 35.23 36.68 38.30 42.40 43.63 44.99 44.44 50.08 51.63 51.91 52.19 53.18 52.42 52.70 52.78 52.86 53.39 53.88 53.99
45.44 45.49 45.74 45.76 45.68 46.22 47.60 47.90 48.14 48.82 48.76 47.77 47.14 45.44 43.59 42.50 42.07 40.90 38.89 37.61 36.93 36.56 35.26 35.17 35.82 37.00 37.17 38.48 40.83 41.73 43.02 41.68 41.95 49.98 51.07 51.07 51.44 51.60 52.10 52.49 52.79 52.97 53.18
45.57 45.78 45.71 45.71 45.70 46.27 46.24 47.00 47.07 48.18 48.29 47.03 46.59 45.42 44.33 42.49 41.79 40.90 40.16 38.35 38.21 36.38 36.11 34.33 35.35 36.63 37.50 38.56 39.14 39.46 41.88 43.99 41.57 47.00 49.83 50.24 50.57 50.91 51.48 51.96 52.70 53.37 53.32
44.49 45.17 45.80 45.07 45.47 46.04 45.73 46.25 47.27 47.51 48.18 47.83 47.55 45.50 45.05 42.00 40.77 39.91 39.85 38.59 37.43 39.46 36.10 35.50 35.10 36.55 37.50 38.10 38.52 38.82 39.05 39.12 41.87 46.99 49.61 50.46 50.62 50.97 51.46 52.75 53.06 53.27 53.40
43.32 44.32 44.69 45.27 45.78 45.87 46.36 46.52 46.49 47.08 47.83 47.75 47.87 47.17 45.98 42.55 41.98 40.06 40.04 39.24 37.79 37.21 35.61 35.33 35.36 36.23 37.19 38.19 37.61 37.21 37.74 38.75 39.72 43.01 45.96 47.86 49.11 49.74 50.54 50.95 51.67 52.73 52.91
42.43 44.10 45.08 45.01 45.39 46.04 46.75 45.91 45.88 46.30 47.36 47.39 48.41 47.50 45.46 45.73 48.71 44.66 41.57 38.75 37.43 36.36 35.51 35.62 35.67 36.21 36.36 36.39 36.36 37.53 36.85 38.78 39.36 40.24 40.64 41.48 42.11 43.05 44.35 48.30 50.08 52.06 52.30
44.02 44.83 44.01 44.11 43.75 45.14 48.06 49.27 49.00 46.16 48.07 48.12 46.46 45.88 45.13 48.43 49.27 50.33 49.48 46.88 42.17 37.60 35.87 36.17 36.12 36.30 36.28 36.93 37.35 37.28 37.88 35.71 36.11 39.74 39.58 40.29 42.64 42.16 43.43 44.34 48.57 50.29 51.22
40.80 41.85 41.51 41.79 41.70 42.62 47.75 49.22 49.55 46.32 46.83 48.87 47.37 45.34 43.96 45.80 48.25 46.86 50.68 50.14 48.54 48.21 44.45 39.34 37.29 37.25 36.87 37.45 37.54 36.97 37.08 37.46 38.02 40.81 41.01 39.85 43.14 42.78 45.34 46.60 49.70 50.69 51.43
38.96 40.09 40.76 41.02 41.24 42.72 47.32 48.56 48.95 46.30 47.12 49.16 46.52 44.75 43.41 44.21 45.42 45.13 45.01 42.80 42.32 43.90 44.86 45.72 40.01 39.52 38.71 39.45 39.03 40.52 40.45 40.45 41.82 43.01 44.23 40.86 45.01 44.75 46.97 48.04 50.84 51.04 51.38
38.72 39.60 40.57 40.42 40.70 41.71 46.43 47.54 47.56 45.37 47.47 46.86 44.56 43.94 43.58 43.39 48.17 49.76 42.24 39.95 38.50 38.85 46.28 47.56 46.91 47.42 48.49 49.10 47.75 42.88 40.60 39.26 38.44 41.31 45.15 43.85 44.54 44.96 46.69 47.13 48.43 50.68 51.10
38.97 39.73 39.32 40.25 43.05 42.15 45.58 47.43 46.81 45.47 46.29 44.51 43.53 43.29 46.94 44.49 50.94 49.99 40.38 38.45 36.48 36.78 38.32 39.04 39.91 42.35 44.37 41.25 46.22 42.78 40.88 38.47 39.98 40.52 44.80 43.37 44.02 44.61 43.47 47.28 48.07 48.71 49.58

GFSMA_sfc_wetblb_036.txt.gz
Wetbulb
56.47 55.99 55.66 54.03 52.28 48.86 47.95 45.86 44.68 43.78 43.21 41.99 42.93 47.71 53.02 53.02 53.28 54.67 55.12 62.54 64.07 64.51 64.14 63.38 63.84 64.05 64.20 65.53 63.97 64.27 65.12 66.03 66.99 67.35 68.18 69.39 69.70 69.40 69.64 69.69 69.21 68.98 68.24
56.73 55.89 54.85 52.67 50.34 46.96 46.80 46.13 44.47 43.02 42.32 40.56 41.77 42.30 48.98 50.57 51.16 51.32 51.39 52.72 61.49 62.16 61.75 60.75 60.81 61.50 62.43 62.16 60.97 61.01 61.61 62.85 63.11 63.36 64.02 64.42 65.69 67.26 68.24 69.05 69.97 69.94 69.34
57.22 56.41 54.95 52.12 49.55 47.16 45.76 43.88 42.42 41.63 41.26 41.68 40.05 40.81 42.97 48.26 48.94 48.27 48.95 49.64 52.61 59.71 58.90 58.29 58.54 59.25 59.33 58.81 58.12 58.01 58.83 59.71 60.16 60.60 61.20 61.75 62.32 63.11 64.94 66.19 67.91 69.26 69.21
58.69 57.20 55.46 55.33 51.16 48.05 46.25 43.89 42.65 41.88 41.27 40.60 39.95 40.12 40.12 41.31 45.59 46.02 46.94 47.84 49.18 50.88 55.79 57.00 56.58 57.02 57.75 57.17 56.85 56.63 57.02 57.31 57.94 58.22 58.81 59.60 60.42 61.04 61.35 62.30 64.38 65.51 67.28
58.32 57.37 55.23 54.44 51.93 50.22 46.65 44.65 42.78 42.17 41.13 40.52 40.95 39.99 39.55 39.65 40.61 44.21 44.96 46.35 47.58 50.01 48.91 54.79 56.41 56.18 56.21 56.24 56.35 56.42 56.12 56.59 56.24 56.73 57.51 58.01 58.46 59.00 59.89 60.60 61.50 63.00 64.25
55.97 53.24 53.02 51.41 51.11 48.14 46.08 44.00 43.62 41.53 41.69 41.47 44.08 43.20 40.02 40.06 39.85 39.73 40.89 45.74 46.11 47.75 47.74 47.79 48.80 50.17 56.37 57.14 56.54 56.97 56.52 56.24 56.22 54.98 56.07 56.37 57.42 58.23 58.69 59.13 59.78 60.40 61.56
50.64 52.66 51.94 49.39 47.91 48.43 49.04 46.31 42.54 42.20 40.99 40.53 40.57 39.80 39.83 40.06 39.05 39.27 39.82 40.75 43.92 45.36 45.83 46.47 45.78 45.40 46.54 55.67 57.80 57.75 57.14 57.24 58.14 55.63 55.25 55.60 56.07 57.11 57.75 58.58 59.13 59.46 59.89
53.05 51.30 51.59 52.04 48.55 47.35 45.87 44.72 44.88 42.99 41.55 41.51 40.23 37.56 38.22 39.29 38.31 39.35 38.27 39.71 40.21 42.92 44.02 44.52 44.35 43.86 43.86 44.51 49.49 55.44 55.61 55.74 56.56 56.25 55.81 56.37 55.93 56.59 57.33 57.68 58.04 58.53 59.24
49.89 51.03 51.30 50.73 50.25 47.17 47.00 44.70 44.22 43.46 45.31 42.00 42.41 41.58 35.21 35.83 35.16 37.66 37.06 38.21 39.31 39.32 41.28 42.79 43.29 43.72 43.28 43.35 48.08 50.44 54.73 55.35 55.63 55.78 56.44 56.53 56.55 56.75 57.36 57.40 57.88 58.24 58.42
47.09 47.95 48.84 48.54 47.85 48.21 46.08 46.96 46.32 45.71 43.59 43.33 41.92 42.87 38.63 37.78 36.98 36.88 37.50 37.15 37.70 39.10 38.99 40.63 42.62 42.80 42.96 42.63 46.45 49.15 51.97 54.61 55.64 55.47 55.50 56.40 56.78 57.34 57.55 57.01 57.75 58.01 58.16
45.83 46.96 47.46 47.26 46.92 46.66 46.96 49.08 46.46 45.20 45.40 45.93 41.44 39.06 39.48 36.32 34.71 36.28 36.13 37.17 36.98 37.49 38.76 39.29 40.68 41.22 41.38 41.30 41.77 45.03 52.81 54.83 55.14 55.41 55.09 55.74 56.31 56.71 57.32 57.37 57.42 58.03 58.20
44.65 45.83 46.88 46.29 46.01 45.96 45.95 46.74 47.32 45.04 46.47 45.96 44.54 41.98 39.42 40.00 36.13 35.18 33.93 34.66 36.57 37.91 37.61 38.23 38.46 39.55 40.55 40.58 44.28 48.84 51.74 53.82 55.26 55.50 55.51 55.71 56.07 56.64 57.25 57.59 57.60 57.75 57.65
42.86 43.97 45.16 45.55 44.81 45.60 46.11 46.12 45.93 46.07 45.31 45.40 45.38 44.71 44.41 42.33 41.35 38.17 36.89 34.10 35.69 35.91 36.57 37.19 37.98 38.69 40.53 40.10 41.92 49.95 52.24 53.75 54.29 54.88 55.25 55.58 56.05 56.41 56.73 56.78 56.93 57.33 57.43
42.70 44.06 45.13 45.92 45.05 45.13 45.19 45.91 45.99 46.78 46.62 46.55 45.46 46.42 45.60 44.31 42.17 39.43 38.35 36.39 33.58 34.04 34.35 37.06 37.46 37.92 38.69 39.79 42.40 50.05 47.10 53.27 54.31 54.21 54.04 54.20 54.38 54.74 55.20 55.65 56.01 56.23 56.50
44.22 44.27 45.21 45.26 44.98 44.92 44.91 44.52 45.37 46.25 47.14 47.05 47.13 46.83 45.95 45.00 43.16 43.05 39.76 38.89 41.13 33.35 33.55 36.04 37.16 37.25 38.26 39.70 43.89 45.37 44.81 49.03 52.12 52.79 53.35 53.28 53.28 53.68 54.35 54.97 55.23 55.35 55.52
42.62 43.46 44.11 44.71 44.80 44.91 44.50 43.90 44.60 46.33 46.24 46.97 47.52 47.23 46.38 45.79 43.36 43.32 40.72 39.99 38.97 39.37 35.47 36.17 35.77 36.85 37.76 41.26 43.39 44.69 44.24 49.63 51.59 52.72 53.07 53.48 52.68 53.16 53.56 53.93 53.99 53.99 54.11
41.11 42.39 44.25 44.97 44.76 44.75 44.42 44.07 44.18 45.02 45.43 46.26 46.60 46.06 46.13 46.20 44.44 42.61 41.51 39.06 37.52 37.17 38.67 35.79 36.03 36.49 36.87 37.99 40.73 42.02 44.22 44.10 44.33 51.23 51.71 51.69 51.83 52.18 52.39 52.52 52.76 53.04 53.29
40.34 41.71 43.83 44.30 44.73 45.03 44.56 43.92 43.50 44.61 44.33 44.89 46.07 45.27 45.71 46.22 44.55 42.95 41.89 39.48 39.66 36.94 37.07 35.51 35.61 35.75 36.39 37.45 38.64 39.25 41.56 43.80 42.31 47.21 50.68 50.91 50.65 50.81 51.15 51.48 52.22 52.67 53.28
40.34 40.89 42.54 42.71 43.72 44.39 44.23 44.28 44.24 44.64 44.75 45.21 45.92 45.24 45.54 45.73 43.90 42.28 42.05 40.58 39.68 39.67 36.67 35.96 35.52 36.10 36.84 37.40 37.86 38.57 39.46 39.89 41.94 46.67 49.35 50.31 50.74 50.98 51.14 51.75 52.58 52.84 52.92
39.59 40.55 40.89 42.19 43.55 44.47 44.80 44.57 44.56 44.40 44.42 45.10 45.87 46.10 46.22 45.79 44.52 43.45 41.84 41.90 39.65 38.63 36.12 35.75 35.31 35.47 36.34 37.14 37.78 37.66 37.68 38.73 40.07 43.13 45.90 47.69 48.76 49.34 49.95 50.28 50.71 51.92 52.18
40.31 39.87 40.28 42.11 43.74 44.47 45.14 43.33 44.02 44.00 44.02 44.40 45.40 46.55 46.45 47.09 49.76 47.44 43.68 42.00 39.53 38.76 36.80 36.38 34.79 35.36 35.65 35.70 36.13 37.12 37.11 38.30 38.94 40.09 40.52 41.32 41.93 42.42 43.76 47.37 49.10 51.04 51.65
39.63 39.48 42.03 42.06 41.74 44.30 47.16 47.50 45.77 43.16 44.30 44.87 44.40 45.54 47.23 50.13 50.32 51.77 51.12 49.09 43.57 38.98 37.70 37.04 35.03 35.06 35.06 36.27 36.91 37.08 37.01 36.42 35.83 40.38 38.85 39.32 41.60 41.23 42.64 43.55 46.94 48.69 49.41
38.77 39.65 39.80 39.73 40.18 41.38 46.60 47.24 46.70 44.13 44.45 44.72 45.07 44.43 46.57 48.33 49.51 47.88 51.09 51.97 49.24 48.45 45.74 39.49 36.44 36.39 35.83 37.09 37.62 36.90 36.55 36.70 37.54 40.97 39.67 38.98 42.24 41.05 43.49 44.75 47.74 48.48 49.60
38.02 38.30 38.08 38.79 39.56 40.97 45.96 46.14 46.41 44.55 44.15 44.86 45.18 44.11 45.52 46.34 46.04 46.80 46.50 47.04 44.54 44.92 44.75 42.30 39.18 38.27 38.79 39.39 39.17 39.29 38.82 38.90 40.15 41.44 42.06 39.20 42.15 41.84 44.52 45.56 48.17 49.32 50.39
36.91 37.08 38.47 38.77 38.90 39.50 44.30 44.88 44.78 43.74 43.46 44.23 44.37 44.23 46.59 45.91 47.26 49.90 46.01 44.35 41.80 41.21 48.57 48.27 45.18 46.64 47.40 46.90 42.85 40.44 40.44 38.43 38.58 39.11 41.52 40.70 41.54 42.97 45.59 46.70 48.16 50.38 50.71
38.18 38.63 38.42 38.57 40.35 38.12 42.38 44.49 44.84 43.24 42.53 43.75 43.35 44.49 48.56 46.16 48.66 50.21 45.59 43.51 40.73 38.27 40.91 40.48 40.91 44.20 45.76 43.15 46.74 42.53 40.45 38.47 37.72 37.51 42.75 41.74 43.36 44.57 43.07 47.02 47.52 48.31 49.11

GFSMA_sfc_wetblb_042.txt.gz
Wetbulb
70.66 69.97 68.15 66.69 65.16 64.45 62.92 60.93 60.39 59.78 59.10 58.41 58.56 59.43 62.45 64.95 66.34 67.21 67.55 64.23 64.73 65.52 65.56 64.84 65.35 66.00 65.39 66.45 65.40 66.56 67.47 68.11 68.52 69.97 70.37 70.07 69.66 69.64 69.67 69.55 69.02 68.83 68.25
71.20 69.95 69.35 67.80 65.99 64.63 63.46 60.89 59.09 58.39 57.60 57.18 56.66 57.09 58.27 61.15 63.29 64.43 64.58 64.68 63.28 64.27 64.99 64.95 64.30 65.14 65.27 64.71 63.27 63.10 63.91 64.37 65.19 66.19 66.23 66.94 68.21 69.08 69.41 69.04 69.13 69.93 69.62
67.54 68.16 68.20 68.29 67.71 65.84 63.46 61.54 59.34 58.17 57.56 56.90 56.02 56.18 56.19 57.91 60.04 61.00 62.16 62.28 62.12 62.17 62.90 63.04 62.72 63.04 63.95 64.32 61.72 60.90 61.87 62.40 62.21 62.63 63.35 63.85 64.04 65.07 66.55 67.10 67.40 69.17 69.59
64.81 64.78 65.36 65.98 67.21 64.80 63.51 61.86 59.84 58.11 57.34 56.78 56.07 55.81 55.26 55.78 57.24 58.46 59.37 59.81 59.60 59.02 60.91 61.12 60.90 61.00 62.34 63.09 61.50 60.02 59.80 60.63 60.52 60.31 60.92 61.75 62.05 62.22 62.40 63.16 64.64 65.57 67.08
60.02 62.14 64.45 64.88 65.12 64.59 65.05 62.41 61.15 58.99 57.54 57.05 56.42 56.31 55.85 55.40 55.56 56.09 57.28 58.47 58.81 58.62 59.02 60.50 59.64 59.18 59.89 61.38 61.11 60.05 59.12 59.24 59.23 59.03 59.15 59.25 59.36 59.87 60.55 61.17 61.83 62.92 64.23
56.79 57.74 59.27 60.89 62.81 62.70 61.98 63.87 62.35 60.84 58.38 57.74 56.23 54.99 55.88 55.82 55.74 55.49 55.33 56.31 57.38 58.27 58.64 58.84 58.84 58.52 58.73 59.38 59.97 60.38 59.97 59.32 58.93 58.03 58.29 58.02 58.37 58.55 59.06 59.56 60.01 60.83 61.51
55.72 55.99 56.17 57.09 58.67 59.56 60.91 61.11 61.90 60.37 58.87 58.13 55.50 55.52 55.73 56.14 55.34 55.04 55.41 55.25 55.99 56.70 57.81 57.94 58.00 57.67 58.11 58.93 59.31 59.81 60.41 60.66 59.71 59.08 57.75 57.64 57.63 57.67 58.27 58.90 59.09 59.43 59.75
54.82 54.89 55.03 55.13 55.85 56.28 57.59 58.62 57.60 58.65 59.04 58.57 53.93 53.75 52.97 55.49 55.49 55.35 55.36 54.79 54.78 55.63 56.02 56.74 57.00 56.93 57.40 57.49 58.58 59.68 60.02 60.74 61.00 60.58 59.64 57.96 58.14 57.69 58.03 58.57 58.67 58.80 59.15
53.90 54.56 54.49 54.26 54.53 55.07 54.92 56.06 57.50 55.68 53.11 56.26 55.75 53.05 51.03 51.55 56.96 56.79 55.33 55.11 54.63 54.48 55.09 55.91 56.11 56.23 56.26 56.30 57.11 57.32 58.59 59.16 59.05 59.06 60.38 59.28 58.60 58.96 58.28 58.50 58.82 58.78 58.92
53.01 54.13 53.73 53.50 53.43 53.85 53.86 54.31 55.20 55.80 54.98 52.35 55.68 54.46 53.13 54.32 53.42 53.18 53.88 53.88 54.52 53.65 54.30 54.98 55.31 55.52 55.67 55.69 56.65 56.75 58.55 58.62 57.87 57.54 58.25 58.45 58.87 59.07 59.12 58.77 59.25 58.59 59.13
52.34 52.48 52.05 51.53 51.54 51.93 52.45 53.50 53.59 53.70 54.73 53.32 51.63 52.73 51.93 50.53 52.40 49.77 51.65 52.84 52.70 53.49 54.42 54.66 54.88 55.03 55.31 55.43 55.28 55.78 55.98 57.14 56.54 56.80 57.45 57.77 58.71 58.69 58.56 59.28 59.26 58.77 58.92
51.15 51.90 51.74 51.47 51.31 51.35 51.53 52.21 53.45 53.51 53.28 53.75 53.55 51.90 50.82 50.77 50.72 47.82 47.76 52.27 54.47 54.96 53.90 54.41 54.37 54.42 54.96 54.95 55.54 56.59 56.44 55.83 56.08 56.43 56.85 56.96 57.69 57.89 58.22 58.62 59.38 59.23 59.08
49.72 50.45 51.24 50.64 50.33 50.46 51.44 51.94 52.55 53.13 52.77 52.44 52.79 52.82 51.80 50.61 51.58 50.66 49.37 48.52 52.13 55.35 54.09 54.25 54.22 54.46 54.02 54.79 54.98 55.79 56.25 55.87 56.91 56.88 57.27 56.74 57.03 57.22 57.70 58.26 58.86 59.20 59.27
49.26 50.44 50.65 50.37 50.07 49.87 49.90 50.91 51.49 53.02 53.16 52.11 52.11 52.70 53.14 52.91 51.94 51.95 50.79 47.91 48.53 51.95 53.62 53.22 53.93 54.12 54.26 54.26 55.30 56.54 54.36 55.49 56.82 57.32 57.25 57.87 58.08 56.61 57.03 57.60 58.13 58.23 58.53
48.72 49.04 49.15 49.21 49.41 49.68 49.48 49.77 50.00 51.86 52.41 51.75 51.59 52.15 52.55 53.46 53.90 53.05 52.45 50.62 50.29 44.73 50.70 53.84 52.38 54.00 53.96 54.20 54.71 54.01 53.41 55.49 55.94 56.99 57.20 57.50 57.53 56.31 56.45 56.72 56.68 56.77 56.95
48.26 48.33 48.02 48.20 48.62 48.96 48.89 48.94 49.56 51.94 51.40 51.39 51.17 51.22 51.69 52.46 53.38 54.03 53.28 49.81 50.86 49.34 46.32 53.81 55.81 54.69 53.50 52.69 54.35 53.17 53.72 55.95 56.24 56.99 56.86 56.46 57.08 56.24 55.58 55.58 55.40 55.67 55.80
46.80 46.92 47.21 47.61 47.84 47.69 48.26 48.10 48.37 49.53 49.41 49.94 50.21 50.34 50.65 51.55 51.73 53.08 53.84 52.52 50.48 49.89 45.24 50.85 54.57 55.60 53.01 52.40 51.78 52.17 53.64 53.11 53.80 56.13 56.75 56.26 55.72 55.75 55.78 55.63 55.07 54.70 54.78
46.84 47.09 46.62 46.56 46.95 47.24 47.67 47.27 47.62 47.94 48.04 48.12 48.85 49.71 49.76 50.15 50.44 51.83 52.57 52.42 50.82 51.03 46.22 45.82 51.82 53.66 51.49 52.11 52.09 51.06 51.50 52.19 52.87 54.54 54.82 55.27 54.92 55.16 55.20 54.82 54.51 54.04 54.11
46.10 46.14 45.71 45.75 46.08 46.40 46.71 47.37 47.46 47.07 47.13 47.70 48.31 49.12 49.49 49.31 49.09 49.76 50.68 51.36 51.73 50.92 48.74 47.05 46.95 49.81 51.55 51.75 50.91 50.84 51.73 51.74 51.39 53.64 53.10 53.85 54.56 54.85 54.55 54.03 53.46 53.14 52.97
43.76 44.65 45.39 44.76 45.53 45.91 46.62 46.72 46.75 47.25 48.28 48.78 48.90 49.31 49.05 49.02 48.87 49.29 49.51 49.91 50.70 50.24 49.63 45.55 44.03 45.71 49.86 50.15 50.05 48.67 48.25 49.93 49.13 49.42 50.92 52.02 52.57 52.83 53.17 53.59 53.13 52.66 52.38
43.10 43.67 43.75 44.17 44.76 45.11 45.11 44.56 46.19 47.22 47.38 47.61 48.15 48.34 48.52 49.02 49.67 49.93 49.22 49.58 50.16 48.79 49.06 47.56 43.20 44.47 48.01 47.85 47.00 48.43 47.72 48.33 48.84 50.10 49.17 49.57 49.86 50.51 51.21 51.53 51.71 52.01 51.88
41.57 41.77 41.68 42.90 42.84 43.82 45.93 46.19 46.91 46.32 46.60 46.56 46.15 47.05 47.66 48.41 48.51 50.01 50.66 51.37 51.05 48.90 47.59 46.90 44.33 46.06 47.26 48.23 48.09 48.46 48.18 47.05 45.49 50.80 48.59 48.43 50.22 49.38 50.45 51.06 51.24 51.44 51.75
41.14 40.92 41.44 42.04 42.20 43.53 45.79 46.29 46.90 46.74 46.18 46.16 46.34 46.75 46.64 46.63 48.44 47.78 49.33 50.69 51.03 52.15 51.48 49.77 45.01 46.55 45.54 48.81 48.91 48.91 48.48 48.33 47.38 49.84 48.89 46.85 49.62 48.10 50.12 49.93 50.74 50.65 50.59
40.44 40.45 41.17 41.36 42.03 43.27 45.14 45.83 46.38 46.09 45.81 45.99 46.38 46.48 46.22 45.98 46.92 46.77 45.75 46.17 48.58 50.50 51.01 50.14 47.88 47.98 47.30 49.03 48.14 49.83 48.72 49.17 49.63 49.67 49.11 44.63 48.57 47.49 49.91 50.27 50.63 50.24 50.01
38.57 40.30 40.57 40.99 40.90 41.92 44.57 45.02 45.40 45.10 44.68 45.03 45.55 45.80 45.33 45.24 46.93 47.49 45.13 45.96 46.45 48.47 52.34 52.96 51.55 49.63 49.50 50.16 50.37 48.21 47.54 46.44 45.45 46.59 48.98 46.45 47.54 47.07 47.98 48.19 49.64 50.31 49.45
39.16 39.02 40.31 40.84 42.22 41.25 43.61 44.63 44.57 43.83 42.90 43.41 44.34 44.56 45.89 45.94 46.93 46.90 46.17 46.29 45.45 47.67 49.67 50.31 50.34 50.20 49.96 48.97 51.20 49.65 48.59 45.92 45.83 45.37 49.02 46.74 46.75 46.25 45.17 50.91 51.81 52.83 51.07

GFSMA_sfc_wetblb_045.txt.gz
Wetbulb
70.98 70.65 70.64 69.21 67.66 66.17 64.50 63.11 61.89 60.85 60.58 59.65 59.00 58.88 59.82 62.77 65.36 66.15 67.95 67.73 66.88 66.99 67.07 65.96 65.13 65.81 66.51 67.46 66.63 67.37 69.14 69.47 69.59 70.19 70.75 70.28 70.40 70.01 69.49 69.09 68.81 68.76 67.99
68.48 69.34 69.98 70.22 69.69 68.04 65.86 64.17 61.85 60.11 59.24 58.58 58.03 57.69 57.84 59.53 62.30 64.26 65.17 65.92 65.56 65.60 65.99 66.10 65.35 65.52 66.48 66.40 65.29 64.92 66.09 66.18 66.98 67.47 68.37 68.93 69.54 69.84 70.14 70.14 69.48 69.30 69.66
65.91 66.04 66.75 67.59 68.28 68.63 67.89 65.46 62.96 61.04 59.50 58.79 57.53 57.27 57.60 57.13 59.60 60.95 63.13 64.02 64.13 65.08 64.73 65.13 64.79 64.29 64.96 66.22 64.11 62.95 63.51 63.91 63.97 64.78 65.47 65.66 66.07 67.95 68.46 68.40 68.40 69.36 69.36
60.56 62.28 65.39 65.73 66.75 66.40 66.39 65.36 63.07 61.44 60.08 59.11 57.72 57.69 56.81 56.88 56.55 58.46 60.92 61.98 61.97 61.23 63.33 63.89 63.35 63.00 63.36 65.01 64.27 62.05 61.91 62.81 62.40 62.38 62.95 63.78 63.90 63.87 64.52 65.24 66.29 67.15 67.57
56.96 57.17 58.83 61.13 64.70 65.42 64.09 63.77 64.52 63.18 60.32 59.87 58.93 58.57 58.04 57.20 56.37 56.29 57.71 60.25 61.33 60.93 60.65 63.06 62.76 62.22 61.86 63.18 63.86 62.57 61.17 61.55 61.51 61.13 61.57 61.48 61.39 61.72 62.28 62.59 63.23 64.59 65.78
55.49 56.05 56.55 57.22 58.34 59.75 62.72 63.04 61.72 62.22 62.80 60.05 58.51 57.92 58.24 58.14 57.83 57.18 56.25 57.29 59.04 59.85 59.95 61.29 60.88 59.71 60.53 61.62 62.58 62.64 61.44 60.85 60.53 60.23 60.26 60.05 60.08 60.36 60.66 61.18 61.62 62.08 63.16
54.06 54.95 55.51 55.40 56.61 56.54 57.13 59.07 60.51 60.72 58.94 62.60 58.72 57.19 58.27 58.02 56.63 56.77 56.99 56.57 57.43 58.20 58.89 58.99 59.82 58.80 58.29 60.34 61.08 61.86 62.17 61.72 61.08 60.11 59.55 59.43 59.05 59.05 59.28 60.02 60.12 60.30 60.62
53.15 52.95 53.77 54.79 54.89 55.47 55.66 56.24 57.39 57.00 57.92 58.43 57.46 56.75 52.49 56.36 57.26 57.16 57.00 56.02 55.81 56.79 57.03 57.83 57.98 58.20 58.70 58.48 59.17 61.35 61.59 62.09 61.99 61.10 60.20 59.51 59.26 58.82 58.81 59.25 59.29 59.37 59.58
52.92 53.00 52.95 53.44 53.60 54.52 54.21 55.48 55.84 56.41 55.31 58.07 56.31 54.21 51.23 49.89 55.92 58.24 57.31 56.70 56.14 56.15 56.36 56.78 57.15 57.42 57.30 57.72 59.32 59.27 60.85 61.12 62.05 62.39 61.88 60.79 59.72 59.67 59.34 59.27 59.34 59.27 59.36
52.17 52.25 52.20 53.12 53.06 53.02 52.37 53.17 53.50 54.49 55.18 53.52 55.41 55.22 53.64 52.60 50.17 51.29 56.76 57.01 56.87 55.89 56.21 56.41 56.23 56.62 56.77 56.65 58.52 58.85 60.14 60.95 61.62 61.53 61.54 62.42 60.94 59.89 60.04 59.64 59.48 59.54 59.47
52.66 52.72 52.00 52.29 52.66 52.15 51.82 51.96 51.97 51.84 53.32 52.48 53.73 53.51 53.80 52.22 51.65 49.41 46.56 52.82 53.87 54.90 55.88 55.65 55.98 56.27 56.37 56.33 56.20 57.27 59.81 60.36 61.08 60.65 59.55 60.22 60.34 60.22 60.30 60.35 59.87 59.83 59.38
52.32 51.60 52.02 52.21 52.86 52.59 51.90 51.80 52.23 52.15 52.05 52.44 52.77 53.54 53.05 51.33 48.69 48.57 47.79 48.67 49.52 52.43 54.31 55.53 55.60 55.82 56.65 56.16 56.91 58.19 58.73 60.40 60.57 60.14 59.38 59.39 59.17 59.74 60.01 59.84 60.25 60.25 59.70
50.18 51.04 51.51 51.46 51.39 52.62 52.72 52.02 51.26 51.61 51.46 51.58 52.46 51.88 53.25 53.18 53.83 51.17 49.22 48.83 47.57 50.17 52.70 54.91 55.31 56.09 55.81 56.23 55.81 57.58 58.59 58.52 59.28 59.16 58.94 59.42 58.92 59.15 59.01 59.15 59.48 60.06 60.16
49.71 50.86 50.51 50.72 50.53 50.90 51.27 51.36 50.62 50.90 51.69 51.48 52.22 52.21 52.09 52.81 53.84 53.15 51.36 47.84 45.16 46.69 50.32 52.25 55.72 55.50 55.78 55.68 56.52 58.57 56.10 58.45 58.28 58.40 58.72 58.73 58.96 59.18 58.76 58.39 58.77 59.01 59.63
49.17 49.07 49.75 49.71 50.07 50.05 49.98 50.13 49.70 49.64 49.93 50.34 51.68 52.37 51.44 52.17 52.84 53.68 53.42 51.68 48.28 44.23 45.56 50.30 52.66 55.17 55.48 55.63 56.17 56.01 54.09 57.43 58.32 58.23 58.29 58.53 58.63 58.83 58.16 57.76 58.00 58.37 58.67
49.06 49.08 49.44 48.98 49.03 49.13 48.81 49.10 49.06 49.69 48.60 49.10 50.96 51.75 50.96 51.57 51.80 53.00 53.01 52.89 51.57 48.57 45.46 50.45 52.90 53.76 55.41 54.38 56.42 54.56 54.77 56.88 57.52 58.18 57.61 57.44 57.89 58.71 58.45 58.24 58.49 58.58 58.32
48.00 47.84 47.94 47.65 47.60 48.00 47.90 47.99 48.37 48.60 48.02 48.10 49.85 50.56 50.22 51.00 50.90 51.58 52.46 52.88 52.16 51.24 47.93 50.69 53.61 52.71 54.61 53.48 53.72 53.84 54.72 53.21 55.67 57.96 57.90 57.11 57.28 57.57 57.63 57.52 57.28 57.28 56.98
46.40 46.22 46.74 46.99 47.34 47.30 47.25 47.11 47.14 47.50 47.17 47.07 48.22 49.24 49.16 49.26 49.81 51.08 50.83 51.08 51.53 52.14 50.16 48.01 51.66 51.66 51.20 53.95 53.44 52.50 51.97 52.90 53.41 56.90 57.87 57.58 56.83 56.86 56.66 56.48 56.29 56.17 55.91
44.33 44.61 44.67 44.43 45.25 45.95 46.12 46.71 46.77 46.89 46.74 47.18 47.35 47.57 48.16 48.65 48.66 49.67 49.85 49.77 50.93 51.43 51.09 49.24 48.91 52.02 51.88 51.56 52.29 52.98 51.61 51.93 52.38 55.58 56.95 57.13 56.99 56.15 55.70 55.37 55.24 55.12 54.66
42.39 42.84 43.53 43.55 44.16 44.78 45.35 46.00 45.85 46.16 46.61 47.07 47.27 47.29 47.21 47.78 48.45 48.93 48.79 49.06 49.29 49.74 50.02 48.21 48.04 49.16 50.54 51.22 51.61 49.58 48.88 51.01 50.33 51.25 54.28 54.56 55.28 55.61 55.65 55.66 55.26 54.27 53.42
42.33 42.02 42.13 42.92 43.33 43.61 44.40 44.69 45.35 45.30 45.02 45.76 47.02 47.86 48.24 49.56 51.88 50.20 48.44 48.50 49.06 48.38 48.67 48.40 46.09 47.15 48.02 48.49 47.84 48.35 48.28 49.72 50.28 50.36 49.33 49.02 50.21 51.16 51.79 54.50 53.83 53.69 53.01
42.19 41.74 41.97 41.87 41.77 42.59 44.73 45.75 45.63 44.59 45.22 45.41 44.77 45.49 47.84 50.72 49.44 49.91 50.08 50.08 49.36 47.59 47.50 46.59 46.38 45.06 47.20 47.84 48.07 46.89 46.39 45.39 45.27 50.58 48.21 47.62 49.10 48.13 49.88 50.85 52.70 52.85 52.68
40.74 40.41 41.03 41.61 41.30 41.98 44.68 45.68 46.25 44.75 44.78 44.93 42.92 43.33 46.34 46.95 49.30 47.62 48.77 49.54 49.77 50.58 50.62 48.94 46.44 45.62 46.89 49.11 49.01 45.81 46.70 45.20 46.97 49.96 48.15 46.42 49.65 48.03 50.40 50.60 53.04 53.25 52.70
40.16 40.38 39.09 40.85 41.25 42.00 44.54 45.24 45.83 44.31 44.52 44.28 44.94 45.53 45.96 46.07 47.45 47.45 46.57 46.22 46.98 47.87 49.03 49.69 49.34 49.57 49.80 50.71 49.99 48.70 47.13 47.08 47.82 48.57 49.97 45.22 48.97 47.63 49.80 50.03 52.05 51.58 51.39
39.91 39.59 40.56 40.02 40.02 41.01 43.94 44.58 44.01 43.32 43.17 43.43 44.50 45.19 45.67 45.72 47.99 48.10 45.73 45.27 45.43 45.49 48.34 50.43 52.51 53.07 53.00 52.33 51.60 47.51 46.18 45.13 44.63 46.26 47.79 47.24 47.58 47.09 48.49 48.68 50.19 51.57 50.82
39.65 39.79 39.70 39.85 41.15 40.97 43.27 43.99 43.78 43.21 41.80 42.34 43.97 44.71 47.60 46.46 47.00 47.08 44.82 44.78 43.21 43.38 45.29 45.90 48.57 51.40 52.03 50.84 51.46 48.81 46.87 44.44 44.82 44.28 48.33 45.98 46.41 46.73 44.46 48.33 48.47 49.71 49.28

GFSMA_sfc_wetblb_051.txt.gz
Wetbulb
63.52 64.82 64.69 66.41 66.92 67.23 64.50 62.15 58.37 56.46 55.07 55.71 55.48 54.43 53.29 51.82 52.51 58.90 64.06 70.26 71.16 71.19 70.31 69.75 68.67 68.40 69.15 69.30 69.29 70.05 71.16 71.79 71.49 70.61 70.50 70.37 71.16 70.57 69.64 69.12 68.61 68.15 67.93
58.19 59.83 61.58 63.81 65.46 66.48 65.79 65.36 63.95 61.29 57.30 53.10 52.90 53.30 52.08 50.75 50.49 53.14 64.02 67.88 70.31 70.78 70.16 69.90 69.02 67.93 68.27 68.70 68.63 69.02 70.32 70.83 71.28 71.46 71.49 71.66 71.25 70.71 69.73 69.59 69.25 68.78 68.58
49.97 49.75 51.37 54.90 58.98 62.81 63.80 63.63 63.55 63.93 62.67 59.96 54.30 52.28 51.03 50.35 50.34 50.09 62.43 63.49 67.14 69.31 69.77 69.61 68.91 68.07 67.26 67.67 67.95 68.04 68.96 69.51 69.74 70.08 71.33 70.91 71.02 70.77 70.79 69.81 69.80 69.90 69.86
48.56 47.94 48.35 48.80 50.10 56.64 60.78 59.67 59.63 59.86 60.68 61.44 58.73 56.19 52.52 50.85 50.22 49.72 51.81 61.66 62.37 64.32 67.45 68.57 68.49 68.00 67.21 67.12 67.74 67.45 67.67 67.64 68.31 69.22 70.17 70.54 70.81 70.74 70.38 70.30 70.31 69.86 69.80
48.62 46.89 47.02 47.58 48.37 48.47 51.35 57.98 58.18 57.33 57.20 58.41 59.40 61.09 60.64 55.89 53.89 53.29 49.22 53.24 58.92 60.21 60.62 66.39 67.44 67.40 67.17 66.53 67.15 67.32 66.90 67.28 67.02 67.55 68.64 68.71 68.34 69.17 69.66 69.58 69.50 69.53 69.60
47.52 46.10 46.03 46.10 47.08 47.28 47.56 48.16 53.10 55.55 55.59 56.40 58.94 57.83 58.40 60.40 56.96 53.11 51.75 50.74 54.02 57.41 57.19 57.97 62.36 63.22 66.55 65.64 65.61 67.29 66.40 66.58 66.73 66.19 66.64 67.14 67.37 67.60 67.65 68.17 68.31 68.79 68.77
47.34 45.92 45.38 45.47 45.62 45.38 46.05 46.49 47.17 48.89 51.41 53.60 52.44 52.14 55.03 56.97 57.09 58.32 53.68 51.14 51.26 54.01 54.15 56.10 57.71 57.81 60.25 65.60 65.58 65.70 67.08 65.68 65.76 65.71 65.38 65.94 65.84 65.87 66.16 66.25 66.13 66.54 66.99
46.61 46.85 45.25 44.82 44.92 44.66 44.82 45.11 45.01 45.02 47.76 51.29 50.28 49.25 47.34 49.60 52.87 55.12 56.69 52.87 51.30 52.98 53.62 53.41 55.69 56.07 55.35 56.76 58.38 64.29 65.60 65.82 64.62 64.35 63.94 64.50 64.27 64.40 64.64 64.82 64.80 64.97 65.41
46.00 45.27 44.74 44.39 43.95 43.26 43.55 43.83 44.41 43.31 42.73 45.03 50.88 48.65 44.50 43.79 46.60 50.07 51.56 52.20 51.86 50.74 53.75 54.05 53.90 55.24 54.47 54.20 57.22 59.69 63.05 65.15 64.62 64.06 63.35 62.91 62.87 62.48 62.37 62.60 62.89 63.02 62.92
44.57 45.00 44.92 44.34 43.60 43.45 42.98 43.30 45.68 43.27 42.50 41.86 43.92 51.96 50.04 48.71 45.63 44.26 49.21 51.20 53.64 52.32 48.24 50.97 53.92 53.46 53.88 53.16 55.76 57.99 60.59 63.18 64.18 64.16 63.75 62.96 62.56 62.06 61.71 61.51 61.70 61.43 61.24
43.35 44.23 44.44 43.95 43.34 42.70 42.76 42.96 42.84 42.10 42.01 41.02 41.30 41.71 46.30 47.65 47.52 47.45 45.01 46.53 49.97 52.04 52.83 50.15 48.12 52.46 53.44 54.00 53.81 56.21 60.43 61.75 62.59 64.03 63.92 63.56 62.96 62.38 62.01 61.58 61.52 61.33 61.11
41.62 42.63 43.73 43.13 43.11 43.02 42.66 43.17 43.20 42.35 42.20 41.91 41.94 42.09 42.44 43.63 44.70 46.24 47.09 45.98 46.75 48.98 52.82 53.48 52.16 48.37 50.13 52.99 55.20 58.12 60.69 61.03 61.87 62.24 63.46 64.16 63.39 62.89 62.46 62.44 61.88 61.59 61.33
39.80 40.55 41.50 41.62 42.51 44.02 43.76 42.62 42.31 42.57 42.33 41.00 41.07 41.66 42.48 43.11 44.65 46.00 46.06 45.67 44.35 46.32 48.90 52.89 52.49 51.83 51.39 50.09 53.46 58.03 59.87 61.20 61.31 61.66 61.82 63.16 64.02 64.33 63.19 62.21 62.35 62.01 61.75
40.24 41.16 41.45 41.57 41.89 42.63 43.28 42.85 43.32 42.86 41.62 42.55 41.37 41.07 43.19 43.18 43.28 45.11 45.56 45.01 41.71 43.22 44.37 45.98 51.85 52.58 52.51 52.17 53.30 58.89 56.20 61.09 61.11 61.13 61.21 61.89 62.52 62.71 63.45 63.09 62.38 62.28 61.82
42.35 42.94 41.13 40.87 41.81 42.02 42.50 42.77 43.25 43.22 42.18 42.31 41.05 40.98 42.23 44.08 44.49 45.26 45.43 47.22 44.84 40.89 40.23 43.13 45.56 48.95 51.81 53.10 52.94 54.40 54.66 59.31 61.26 60.58 60.46 60.85 61.29 61.24 62.04 62.06 62.60 62.15 62.19
40.82 41.15 40.95 40.79 40.56 41.08 41.21 40.69 41.03 42.09 42.35 42.60 43.01 42.44 42.55 43.26 43.73 45.72 45.95 46.07 46.04 44.82 41.88 43.64 44.73 47.60 52.41 54.63 54.86 53.71 53.70 55.50 60.13 60.52 59.72 59.60 60.25 60.12 60.75 60.61 61.12 61.17 61.11
39.40 40.01 40.72 40.64 40.61 40.70 40.76 39.89 39.89 40.38 40.94 42.37 42.50 42.54 42.15 43.16 43.19 43.55 44.80 46.22 46.42 45.50 43.24 43.04 44.50 46.53 47.78 51.54 54.00 52.15 53.94 53.13 53.74 60.35 60.10 59.41 59.15 58.84 59.47 59.40 59.90 60.14 60.32
40.17 40.20 40.16 39.94 39.94 40.47 40.47 39.55 39.11 39.63 39.46 40.18 41.43 42.32 41.97 44.24 42.65 42.32 43.50 44.93 46.57 47.39 45.61 41.71 43.75 44.30 46.71 48.86 50.81 52.47 52.23 53.60 53.32 56.07 60.10 59.34 58.37 58.00 58.16 58.42 58.60 58.87 58.91
39.30 39.48 39.78 39.43 39.62 40.33 40.35 40.33 39.98 39.62 39.56 40.11 41.00 41.65 42.23 43.04 42.04 42.16 41.49 43.14 44.35 46.47 45.13 42.49 42.76 44.52 45.78 47.11 48.09 51.79 49.71 48.17 52.53 54.36 59.31 59.03 58.25 57.95 57.84 57.71 57.48 57.26 57.30
38.89 39.27 40.29 39.88 39.62 40.06 40.35 40.36 40.15 39.63 39.36 40.00 41.03 42.07 42.55 42.72 42.42 42.61 42.09 42.17 43.62 43.52 41.72 42.39 42.26 42.66 44.22 45.32 45.31 46.52 49.00 47.93 47.99 52.78 56.33 57.44 58.44 58.15 57.93 57.68 57.41 56.33 55.54
39.70 40.01 39.97 39.62 40.17 40.43 40.89 41.12 41.36 40.71 39.76 39.85 40.41 41.69 42.64 44.11 47.23 46.96 44.48 42.13 43.72 42.03 41.65 40.71 40.96 41.75 42.42 43.78 42.88 44.38 44.40 47.36 47.84 48.90 51.36 52.94 54.94 55.40 55.68 57.63 56.07 55.76 54.79
39.39 39.11 38.71 39.53 39.42 40.38 44.00 44.67 43.54 41.38 41.84 41.38 39.46 40.55 41.49 44.19 45.02 48.82 48.80 49.63 46.59 41.80 42.15 41.43 41.55 41.21 40.55 41.96 43.04 43.73 44.31 43.54 42.85 47.78 49.18 49.34 53.14 52.72 53.49 53.50 55.33 55.36 54.78
38.04 37.86 38.71 39.30 39.10 39.98 43.92 45.36 44.86 41.52 41.13 41.01 41.16 41.17 41.20 43.11 44.58 43.86 46.46 47.85 47.68 48.74 47.32 43.63 43.58 42.39 40.81 42.40 42.97 42.06 43.90 44.46 43.87 45.53 47.90 46.56 46.91 50.00 50.33 52.00 54.11 54.36 54.69
37.87 38.27 38.59 39.11 39.32 40.43 44.50 44.61 44.48 40.95 40.90 41.13 41.14 40.92 41.25 41.95 43.07 43.40 42.22 41.49 42.27 43.77 44.35 45.36 44.72 43.99 43.35 43.94 44.30 44.62 43.84 43.75 45.86 46.34 46.62 43.85 43.27 45.17 45.65 48.02 52.90 53.71 54.24
37.85 38.10 38.81 38.88 39.10 39.43 43.51 44.18 42.85 40.26 39.13 39.67 40.55 41.44 41.82 41.74 44.24 46.38 42.70 40.72 40.05 42.02 46.51 48.54 49.40 49.37 50.56 50.19 47.07 44.68 43.25 43.30 41.54 43.84 45.68 44.27 43.33 43.86 44.14 43.27 45.78 52.33 52.39
38.06 38.70 38.73 39.59 41.41 40.45 43.26 43.68 42.72 39.59 37.64 38.30 39.76 40.97 44.19 42.58 45.11 45.95 42.11 41.06 39.11 41.04 41.06 43.39 43.80 46.16 48.44 47.73 51.60 45.44 44.24 43.37 40.50 40.23 45.79 44.22 43.64 44.09 42.07 44.19 44.43 45.61 49.42

GFSMA_sfc_wetblb_057.txt.gz
Wetbulb
47.99 50.35 50.83 53.14 54.28 55.53 60.74 62.57 62.46 62.85 62.25 61.59 60.05 54.95 52.36 51.62 51.27 51.60 54.35 62.48 67.57 70.88 71.59 71.86 71.55 70.85 70.14 69.77 69.80 69.90 70.25 71.84 71.70 71.24 71.15 71.59 70.84 70.16 69.40 68.56 68.28 67.94 67.22
44.66 45.90 45.92 46.47 47.04 48.81 52.53 56.58 57.37 58.49 59.94 60.81 60.49 60.49 58.95 55.76 51.25 49.35 49.84 52.81 62.04 68.94 71.41 71.54 71.75 71.24 70.59 69.94 69.59 69.67 69.47 71.16 71.48 71.68 71.37 72.07 71.41 70.80 69.66 68.93 68.61 68.46 68.09
43.75 43.98 44.06 44.24 44.31 45.68 48.45 49.41 51.49 54.32 54.45 56.15 54.77 57.56 59.10 59.35 57.30 55.84 52.86 49.87 57.67 65.06 69.81 71.49 71.92 71.48 70.87 70.14 69.43 69.23 69.02 69.48 71.02 71.13 71.32 71.07 71.15 70.73 70.20 69.59 68.98 68.79 68.65
44.71 43.35 43.19 43.08 43.71 44.69 46.20 45.68 47.33 50.11 49.96 51.89 51.49 52.84 55.35 55.97 55.48 55.75 54.57 51.35 55.69 61.96 67.44 70.39 71.22 71.34 71.01 70.32 69.21 68.79 68.51 68.39 69.30 70.58 70.79 70.47 70.92 70.63 70.87 69.89 69.62 69.23 69.09
45.65 42.42 42.12 42.35 43.07 43.11 42.90 43.64 45.13 46.49 48.37 48.75 49.68 51.79 52.90 52.48 52.17 54.96 55.78 54.40 51.60 57.51 63.74 67.00 69.81 69.78 71.00 70.36 69.42 68.57 68.21 67.85 67.88 69.15 69.97 70.13 70.40 70.62 70.64 70.28 70.00 69.89 69.72
44.09 42.24 42.23 42.31 42.08 41.46 41.29 41.66 41.83 43.26 45.73 47.28 50.00 50.43 49.38 50.33 50.37 51.66 49.26 54.77 53.57 52.24 58.85 61.25 63.72 67.13 69.49 70.16 69.38 68.55 68.07 67.98 67.42 67.57 68.41 69.46 69.68 69.89 69.90 70.19 69.97 70.19 70.12
43.63 42.49 42.31 41.75 41.58 40.72 40.23 40.68 40.83 42.13 42.46 45.13 46.10 44.17 45.81 47.93 47.70 48.00 49.52 52.21 50.25 51.17 51.69 58.22 60.49 62.68 64.50 68.43 68.66 68.89 68.16 68.05 67.85 67.19 67.36 67.99 69.09 69.28 69.73 70.08 70.03 69.71 69.71
42.65 43.26 40.78 40.67 40.39 39.90 39.96 39.74 39.22 38.94 40.90 43.25 41.84 42.62 39.16 42.15 44.89 48.93 47.49 48.98 48.50 50.48 50.80 52.94 55.39 57.80 59.88 62.27 64.87 67.14 66.91 67.59 67.68 67.62 66.89 67.12 67.38 68.58 68.83 69.05 69.65 69.40 69.21
41.61 41.24 40.77 40.20 39.79 39.13 38.90 38.54 38.75 38.42 38.03 39.44 41.31 41.55 37.95 37.27 41.30 44.31 46.11 47.29 46.96 48.93 48.76 50.98 52.29 53.73 56.33 56.87 59.87 63.61 65.11 66.51 67.29 67.85 66.85 66.37 66.44 67.04 67.92 68.34 68.41 68.94 68.98
40.26 40.94 40.89 40.15 39.24 38.94 38.11 38.25 41.95 38.73 37.71 37.30 38.90 42.69 43.79 43.02 40.77 39.73 41.30 45.09 46.40 47.14 46.54 48.30 51.77 51.78 52.24 53.54 57.24 59.66 62.86 64.97 65.62 66.63 67.67 66.21 66.21 66.08 66.44 67.75 67.87 67.73 67.74
39.58 40.36 40.20 39.51 38.96 38.68 38.44 38.32 38.17 37.80 37.72 36.94 37.07 37.42 37.39 39.22 41.13 41.55 38.61 38.87 44.02 45.88 46.13 48.16 49.07 51.23 52.11 52.45 52.36 55.74 60.07 62.79 64.20 65.00 66.94 66.90 65.75 65.49 65.50 65.56 65.85 66.90 67.16
38.27 39.30 40.05 38.97 38.77 38.45 38.52 38.78 38.42 37.56 37.62 37.52 37.61 37.57 38.12 36.92 37.14 38.61 38.93 39.73 41.16 42.74 46.12 46.60 47.70 49.51 50.18 51.69 53.56 56.45 58.15 60.92 62.51 63.62 64.44 66.11 66.17 65.05 64.63 64.58 64.28 64.21 64.61
36.89 37.63 38.09 38.15 38.31 38.68 38.83 38.73 37.82 37.32 37.31 36.56 37.11 37.80 38.22 39.11 40.30 39.65 39.82 39.64 38.49 41.08 42.92 45.54 46.67 48.75 51.39 49.52 49.28 54.97 57.60 59.43 61.36 62.36 63.11 64.39 65.14 65.12 64.84 63.68 63.51 63.20 63.15
36.54 37.85 38.36 38.29 38.34 38.48 38.52 38.17 37.33 37.60 37.53 37.72 36.91 37.26 39.03 39.50 39.70 40.30 39.82 39.06 37.44 36.86 40.38 41.06 45.13 47.58 49.61 50.68 51.06 55.49 53.74 57.81 60.32 61.56 61.96 62.76 63.79 64.09 64.40 64.10 63.49 63.36 62.18
39.10 39.54 38.12 37.58 38.13 38.59 39.63 39.36 38.73 38.33 38.45 38.49 38.47 38.48 37.77 39.33 39.78 40.46 40.87 40.82 39.39 35.98 37.17 38.07 41.79 44.80 48.23 49.74 51.99 52.34 51.62 55.93 58.60 60.75 61.05 61.77 62.49 63.34 63.63 63.74 63.78 63.47 63.06
36.62 37.03 37.84 38.16 38.27 38.52 38.71 38.30 37.86 38.21 37.65 38.11 38.80 38.06 37.63 38.20 38.42 39.54 40.38 40.84 40.77 39.23 36.44 38.82 40.23 43.87 45.64 49.74 50.80 52.14 51.76 56.30 58.45 60.68 59.45 59.07 59.25 60.97 62.03 62.19 62.57 62.70 62.52
37.27 37.43 37.65 37.65 37.52 37.66 38.11 37.62 37.33 37.54 37.16 37.53 38.02 37.43 37.37 37.90 37.82 38.48 38.72 40.03 40.10 39.91 37.43 39.91 40.62 43.09 43.19 45.21 48.16 50.23 52.36 52.49 55.42 59.64 59.80 59.17 59.48 59.58 60.30 60.65 60.91 61.27 61.89
37.19 37.11 37.41 37.26 37.25 37.57 37.94 37.94 37.16 37.87 37.36 37.00 37.61 37.95 37.79 39.59 37.83 37.98 38.09 38.51 39.11 40.11 39.75 38.16 39.62 41.15 42.01 43.53 45.71 46.49 50.74 53.59 54.02 57.31 59.57 58.86 58.23 58.38 58.93 59.31 59.75 60.10 60.20
36.37 36.84 37.01 36.62 37.05 37.84 38.88 39.18 38.43 37.89 37.52 37.41 37.63 37.61 38.47 38.88 37.71 37.45 37.50 37.69 39.08 41.11 40.65 39.96 40.23 42.12 43.61 42.77 43.83 46.09 46.79 48.55 53.02 55.49 58.68 58.18 57.39 56.87 57.19 57.96 58.39 58.34 58.35
35.98 36.39 37.47 38.61 38.89 38.89 39.15 39.04 38.93 38.57 38.56 39.03 38.60 38.85 39.17 39.41 38.40 37.95 37.35 37.66 39.67 39.63 40.36 40.80 41.25 42.09 40.88 41.78 45.80 43.72 46.09 44.81 48.16 53.62 56.22 56.65 57.18 57.00 56.56 57.29 57.84 57.32 56.89
36.54 37.05 38.12 38.56 38.72 38.89 39.38 38.87 39.03 38.94 39.30 39.38 39.81 40.52 41.16 41.78 44.85 43.45 39.44 37.66 38.68 39.89 40.57 40.16 40.95 41.45 40.17 41.35 43.17 42.96 44.30 43.66 44.08 50.28 53.07 54.32 54.60 55.03 55.14 55.40 56.25 56.47 56.09
37.65 37.73 37.59 37.90 37.93 39.09 42.72 44.19 43.67 41.46 41.32 40.91 39.92 40.61 41.55 43.53 43.72 46.14 46.25 46.84 44.35 39.44 38.99 39.96 40.14 40.01 39.68 41.06 43.63 42.89 42.71 44.67 42.58 46.65 50.16 50.23 53.90 52.15 52.72 53.99 55.89 56.45 56.05
37.21 37.24 37.70 38.13 38.12 38.96 43.82 45.49 45.81 43.06 42.19 41.76 41.68 41.43 40.20 41.70 42.89 41.27 43.86 45.80 46.06 46.80 46.28 41.58 41.10 40.81 40.39 43.14 43.99 43.38 42.12 42.64 42.36 45.47 47.78 46.90 51.07 50.84 52.50 54.27 55.65 55.91 56.14
36.60 37.28 37.81 38.32 38.48 39.45 44.58 46.17 47.02 43.97 42.37 42.02 42.23 41.54 39.51 39.27 40.07 40.62 40.31 40.10 39.91 41.05 43.01 43.11 43.54 42.99 43.48 44.83 45.52 45.34 43.16 43.11 43.58 45.91 47.30 45.39 49.00 48.54 51.76 53.14 54.65 55.12 55.59
37.09 37.39 38.35 38.83 39.01 39.62 44.44 46.56 45.77 43.37 41.48 41.31 41.35 40.66 39.15 38.67 42.20 44.22 41.14 40.17 39.78 41.14 45.60 46.24 44.91 47.02 48.45 48.62 47.00 44.32 41.04 40.96 39.47 40.98 45.57 45.56 46.34 46.19 48.83 49.40 50.80 53.63 54.21
38.01 39.36 39.06 39.68 41.57 40.79 43.88 46.01 45.54 43.63 40.93 40.43 40.92 39.77 43.22 40.99 43.59 44.37 40.83 40.66 39.73 40.21 40.94 42.43 44.23 45.70 47.06 46.60 49.73 44.65 43.07 40.55 38.87 39.27 43.84 43.26 44.62 45.05 43.23 46.16 48.42 48.85 52.46

GFSMA_sfc_wetblb_060.txt.gz
Wetbulb
44.43 45.78 45.46 46.34 46.26 47.51 50.71 52.63 54.33 56.54 57.54 59.06 60.01 59.65 58.49 56.60 54.28 51.72 51.09 57.77 61.20 64.96 68.88 71.45 71.80 71.65 71.23 70.57 70.15 70.06 70.20 70.85 71.13 71.53 71.75 71.17 71.06 70.39 69.68 68.78 68.29 67.65 67.47
42.86 43.27 43.14 43.23 43.65 44.88 46.21 46.72 47.83 51.54 52.54 52.98 54.82 54.99 55.54 57.76 57.30 56.12 53.58 51.94 59.23 60.75 64.25 67.81 71.41 71.65 70.99 71.12 70.36 69.79 69.68 69.58 70.01 71.31 71.57 71.82 71.06 70.74 69.93 69.01 68.61 68.24 67.65
42.38 41.83 41.52 41.64 42.03 43.12 44.96 43.99 44.28 47.00 47.09 49.47 49.36 51.47 52.77 55.56 55.78 54.41 53.71 53.40 53.69 58.70 61.27 64.00 68.45 71.19 71.13 70.93 70.85 70.04 69.94 69.37 69.24 70.75 70.75 70.77 71.19 70.49 70.24 69.50 68.99 68.79 68.35
42.99 41.55 41.45 41.38 41.93 42.65 43.24 42.69 43.37 44.64 44.55 45.40 46.50 47.30 49.73 51.96 52.13 51.59 52.50 54.49 52.92 53.88 58.65 62.77 65.16 68.42 70.85 70.92 70.68 70.46 70.11 69.07 68.81 69.00 70.29 70.40 70.26 70.73 70.49 70.11 69.34 69.21 69.03
43.48 41.19 41.03 40.96 41.23 40.86 40.41 41.33 41.64 42.13 43.01 43.45 45.30 46.19 48.27 49.01 48.80 51.29 49.76 52.13 52.04 53.58 54.49 60.07 63.32 66.60 70.06 70.83 70.44 70.39 70.12 69.02 68.49 68.19 68.89 70.17 69.84 70.09 70.41 70.20 69.85 69.51 69.37
42.56 41.11 41.05 40.51 40.39 39.81 39.65 39.33 39.12 40.46 41.76 42.84 46.19 46.34 45.56 46.49 47.08 46.81 48.22 50.00 52.23 51.43 51.04 55.00 58.53 61.23 64.37 68.95 70.18 69.57 69.78 68.92 68.67 67.93 67.68 69.00 69.81 69.61 69.72 70.16 69.78 69.79 69.71
42.23 40.89 40.35 40.05 39.86 39.21 38.42 38.40 38.27 39.20 39.38 41.88 42.12 41.12 41.87 44.40 43.57 45.71 46.78 49.68 49.19 50.21 50.07 51.85 55.23 58.51 60.76 63.76 67.58 69.40 69.52 69.20 68.47 68.80 67.57 67.46 68.05 69.57 69.55 69.71 69.75 69.59 69.79
41.27 41.97 39.50 39.51 38.88 38.28 38.08 37.84 37.13 36.94 38.13 39.68 38.46 39.00 36.90 39.69 41.77 47.64 46.82 47.41 47.12 48.09 50.13 50.39 50.18 53.97 57.22 59.15 62.18 65.57 67.50 68.65 68.22 68.99 68.66 67.36 67.19 67.67 69.15 69.07 69.26 69.30 69.50
40.40 40.08 39.42 38.76 38.38 37.54 37.53 36.84 36.77 36.48 35.94 37.21 39.08 38.55 35.24 34.71 38.00 41.49 42.75 44.29 44.22 44.98 47.50 47.58 48.93 50.65 53.14 56.30 58.56 60.33 62.76 66.31 68.03 68.74 69.12 67.84 67.24 67.15 67.50 69.22 68.73 69.01 69.06
38.86 39.48 39.39 38.73 37.94 37.57 36.76 36.94 40.24 37.29 35.84 35.25 36.44 40.47 40.12 39.64 37.21 36.08 39.19 42.05 43.88 44.85 44.40 45.56 48.00 49.99 50.49 51.64 55.19 58.07 59.95 62.37 65.29 67.26 67.99 68.58 67.53 66.76 67.20 66.67 68.51 68.20 68.38
38.41 39.09 38.83 38.16 37.64 37.43 37.12 36.97 36.82 36.16 36.02 35.39 35.38 35.55 35.54 36.84 38.32 38.74 35.57 38.23 40.36 43.78 45.14 45.47 47.05 48.24 49.53 50.38 51.75 54.31 57.53 59.22 62.13 64.00 66.64 67.13 67.71 66.30 66.20 66.26 67.02 67.68 67.55
37.36 37.96 38.51 37.51 37.32 37.14 37.11 37.54 37.10 35.98 36.04 35.60 35.82 35.90 36.19 35.09 34.73 35.39 34.93 36.79 37.24 40.12 42.97 45.58 45.50 46.57 48.20 49.32 52.37 55.71 57.31 58.16 59.23 61.81 64.21 65.94 66.57 66.76 66.26 65.84 65.22 66.22 66.64
35.61 36.41 36.92 37.00 37.67 37.55 37.48 37.42 36.47 35.85 35.85 35.47 34.99 36.19 36.76 37.45 38.15 37.04 36.79 36.49 36.33 38.92 40.70 43.93 46.02 46.59 48.08 48.25 49.38 54.29 55.85 57.37 58.58 59.67 62.22 64.11 64.98 65.82 65.68 66.17 65.39 65.28 64.61
35.31 36.71 37.36 37.20 37.14 37.61 38.05 37.76 37.06 37.45 36.92 36.49 35.52 36.10 37.49 38.29 38.41 38.75 37.64 35.86 34.31 36.01 37.63 40.08 43.02 45.27 46.38 47.96 50.20 54.88 53.62 56.77 57.54 59.26 60.70 62.56 63.44 64.43 64.92 65.00 65.09 64.93 64.32
37.81 38.25 37.23 37.03 37.98 38.00 37.76 37.42 37.38 37.08 37.36 36.91 36.70 36.32 36.14 37.54 38.39 38.32 38.28 38.02 35.88 32.30 33.89 38.55 39.04 42.93 45.22 47.00 49.94 50.71 51.31 55.14 56.98 58.47 59.70 61.05 62.41 63.53 64.23 64.71 64.51 64.31 64.06
35.79 36.48 36.64 36.61 36.75 37.06 36.90 36.41 36.46 37.13 36.60 36.81 37.30 36.43 36.36 37.17 37.00 37.32 37.51 37.92 37.93 36.42 33.78 38.68 38.33 41.62 43.68 47.24 48.54 50.25 51.06 54.51 56.06 57.32 59.04 59.84 61.15 62.63 63.40 63.47 63.10 63.18 63.18
35.33 35.86 36.45 36.29 36.32 36.47 36.74 36.23 36.26 36.49 36.07 36.42 36.77 36.59 36.69 37.28 36.67 36.62 36.26 36.99 37.28 37.54 35.34 38.21 38.98 39.47 40.99 42.42 44.97 47.52 50.50 51.23 52.48 56.95 58.97 59.46 59.77 61.22 61.64 61.61 61.49 61.63 62.01
36.10 35.91 35.95 35.91 36.14 36.36 36.54 36.02 36.05 38.04 37.66 37.52 37.01 36.65 36.67 38.57 37.15 37.36 36.78 35.86 36.31 37.43 37.30 35.65 38.25 38.22 39.58 41.94 43.57 44.44 46.46 49.89 51.44 54.59 57.31 59.26 58.88 59.13 59.77 59.78 59.62 60.47 60.48
35.10 35.45 35.66 35.40 35.86 36.44 36.77 37.94 38.57 38.32 38.41 38.17 38.09 37.74 37.65 37.80 36.53 37.12 37.11 37.47 36.81 37.81 37.20 37.33 37.66 39.33 40.63 41.32 42.68 43.96 45.18 46.74 50.89 54.37 56.25 58.25 58.45 58.56 58.55 58.28 57.67 58.12 58.35
34.62 34.93 35.49 35.93 36.61 37.73 38.55 38.63 38.51 38.25 38.45 38.72 38.91 38.86 38.63 38.33 37.78 37.73 38.24 37.29 37.04 36.25 37.13 37.63 38.19 38.80 40.03 41.78 42.44 42.37 43.35 44.94 47.24 52.32 54.55 55.84 57.88 58.19 58.33 58.38 58.08 57.43 56.88
35.35 35.58 36.58 38.05 38.28 38.44 38.95 38.71 39.40 39.60 39.44 39.08 39.15 39.29 39.76 41.38 44.10 42.97 39.45 38.53 37.21 36.11 36.27 36.95 37.89 38.01 38.57 41.04 40.89 43.10 43.62 43.93 44.33 49.02 50.88 52.64 54.81 55.48 55.91 57.35 56.62 56.60 56.21
35.01 37.53 37.46 37.66 37.63 38.89 42.78 44.49 43.95 42.36 42.74 42.33 41.17 41.41 41.53 43.97 44.53 46.37 46.55 46.89 44.11 37.40 35.67 35.99 36.94 37.55 37.79 40.54 43.02 43.16 42.87 43.50 42.65 49.12 48.81 50.63 53.15 53.62 54.68 54.44 55.95 56.22 56.18
36.19 36.99 37.39 37.84 37.84 38.68 43.64 45.50 46.34 44.29 43.51 43.34 42.99 41.93 42.01 42.51 43.23 41.85 43.71 45.65 45.20 46.03 45.61 40.60 37.98 38.63 38.75 40.79 43.40 43.04 42.55 43.24 42.07 45.60 49.90 49.06 52.23 51.27 54.06 54.28 55.41 55.83 56.08
36.52 36.95 37.44 38.07 38.50 39.61 44.82 46.10 46.77 44.37 43.82 43.17 43.18 42.59 41.88 41.74 41.43 41.18 39.97 39.07 39.31 39.62 39.99 40.94 41.66 40.49 41.75 43.34 44.84 44.65 44.17 44.46 45.64 48.36 47.76 45.87 50.09 50.23 52.29 53.51 54.61 55.45 55.86
36.75 37.23 38.61 39.37 39.37 39.64 44.16 45.91 44.99 42.57 42.44 42.35 43.07 42.54 41.82 41.27 43.15 44.56 41.04 38.45 38.31 38.42 43.15 45.85 46.14 45.94 45.98 47.25 46.79 45.64 43.22 42.64 40.64 44.77 46.82 46.77 47.83 48.00 50.33 51.94 53.51 54.47 54.52
38.01 39.18 39.02 39.53 41.30 40.24 43.31 45.15 45.11 43.06 41.76 41.99 43.15 42.17 44.43 42.54 43.48 44.16 40.29 37.95 37.23 37.81 40.51 41.43 42.36 45.09 45.57 45.54 48.65 46.40 45.11 42.65 40.11 41.69 46.64 44.71 46.48 46.30 44.50 47.42 50.62 51.52 52.42

GFSMA_sfc_wetblb_063.txt.gz
Wetbulb
51.20 51.58 51.38 51.86 52.03 52.81 52.63 52.43 53.16 53.91 54.73 54.90 55.61 56.34 56.91 58.05 60.18 60.92 60.86 59.70 60.76 63.11 63.73 65.73 68.94 71.33 71.37 71.40 70.89 70.57 70.45 70.34 71.12 70.94 71.62 71.32 71.25 70.58 69.88 69.16 68.49 67.97 67.74
50.69 50.82 50.74 50.84 51.05 51.51 51.51 51.07 51.14 52.26 52.69 53.05 53.49 54.65 54.97 55.73 56.73 57.07 57.32 58.14 59.02 60.72 62.53 64.28 65.36 67.41 71.07 71.05 71.20 70.91 70.41 70.55 69.86 69.99 70.65 71.21 71.25 71.03 70.30 69.41 68.71 68.12 67.99
50.16 50.15 50.06 49.89 49.90 50.44 50.60 50.89 50.90 51.44 51.27 51.58 51.76 53.16 53.38 54.06 54.82 54.87 55.08 55.77 57.02 58.15 58.57 60.30 64.19 65.17 67.55 71.08 70.84 71.19 71.24 70.36 69.86 69.57 69.75 70.55 70.94 70.98 70.63 69.90 69.09 68.68 68.08
50.19 50.22 49.97 49.53 49.59 50.00 50.08 50.06 49.80 49.45 49.75 49.97 50.26 51.21 52.16 53.03 53.46 54.02 54.48 54.91 55.52 56.16 58.25 59.88 61.73 64.79 65.93 67.51 70.62 70.75 70.50 70.84 69.88 69.33 69.13 70.46 70.37 70.26 70.29 70.29 69.48 69.23 68.72
49.35 49.83 49.64 49.34 49.17 49.18 48.62 48.22 48.16 48.46 47.71 48.25 48.63 49.56 50.37 51.31 51.93 52.46 52.93 53.82 55.41 57.79 58.17 58.20 59.44 61.55 63.80 65.49 69.11 70.79 70.31 70.24 70.61 70.18 69.04 69.62 70.65 70.09 70.17 70.07 69.94 69.65 69.25
49.14 49.75 49.53 48.79 48.55 48.11 47.71 47.27 46.72 47.64 47.37 47.51 47.30 47.52 49.25 49.67 50.88 51.24 52.02 53.15 56.33 56.78 56.25 56.37 58.18 58.76 59.66 62.78 65.08 68.93 70.17 70.22 70.12 70.34 69.39 68.38 68.73 70.11 69.91 70.28 70.13 69.78 69.95
48.73 49.13 49.09 48.25 48.14 47.28 46.74 46.81 46.26 45.73 46.15 47.57 46.34 46.41 47.39 48.95 50.33 51.51 53.16 52.45 54.73 54.36 54.84 54.46 55.18 54.76 56.09 58.84 61.16 64.46 69.05 69.55 69.47 70.08 69.48 68.33 67.92 69.42 70.09 69.86 69.75 69.57 69.76
47.89 47.80 47.48 47.52 47.36 46.64 46.55 46.24 45.72 44.71 45.31 46.66 43.94 44.14 43.12 44.80 50.23 52.50 51.35 50.83 51.18 53.00 52.99 53.18 53.77 53.40 54.57 57.10 59.47 60.43 62.57 66.69 69.37 69.12 69.91 68.95 68.01 67.69 69.12 69.88 69.54 69.71 69.78
46.66 46.59 46.76 46.59 46.52 46.33 45.50 45.65 45.52 44.89 43.04 44.99 45.57 42.83 40.43 39.93 43.34 46.51 47.91 49.28 48.95 49.30 51.32 52.12 51.71 52.74 53.54 55.90 57.04 58.02 58.95 60.66 64.79 68.49 68.29 68.61 68.47 67.83 68.19 68.81 69.36 69.20 69.57
45.63 45.71 45.70 45.77 45.63 45.69 44.98 45.26 45.56 45.18 44.18 42.05 44.13 44.42 45.01 43.99 39.74 39.11 45.22 46.74 47.96 47.66 48.79 49.87 51.45 52.50 53.33 54.76 55.39 56.86 57.60 58.24 60.19 63.84 67.40 67.28 67.91 68.26 68.07 68.40 69.22 68.95 69.19
45.54 45.22 45.18 45.03 44.91 45.11 45.03 44.67 44.43 44.26 44.25 42.85 42.57 42.55 42.92 42.96 43.59 41.15 38.34 41.61 45.51 47.18 48.10 48.85 49.48 50.11 51.91 54.01 53.46 54.80 55.80 56.40 58.56 60.06 63.26 66.63 67.12 68.24 67.89 67.48 67.97 68.40 68.44
44.51 44.75 44.74 44.78 44.73 44.34 44.00 44.01 44.15 43.75 43.34 43.24 42.99 42.62 41.76 40.64 40.47 40.80 39.90 40.22 41.01 43.57 45.89 47.28 48.17 49.15 50.71 52.60 53.62 55.18 55.03 55.21 57.28 58.80 59.97 62.60 65.95 67.25 67.15 67.59 67.13 67.19 68.09
43.02 43.70 44.03 43.57 43.43 43.72 43.65 43.42 42.83 42.60 42.51 41.79 41.96 41.70 42.43 41.89 42.48 41.78 40.52 39.98 39.68 42.28 43.45 45.76 46.79 48.02 49.15 50.46 51.87 54.15 54.65 55.07 55.87 57.60 59.22 60.39 62.61 65.82 66.44 66.39 67.51 67.54 67.36
42.51 43.14 42.78 42.99 42.75 42.69 42.37 42.21 41.90 41.86 41.93 41.55 41.07 41.12 41.13 41.60 42.01 41.63 40.13 38.97 37.96 39.62 42.04 42.08 45.43 46.63 48.30 49.66 51.34 53.74 52.97 55.07 55.04 56.65 58.25 59.77 61.52 63.55 65.10 65.96 66.03 66.31 66.11
41.83 42.42 42.42 41.79 41.74 41.47 41.32 41.26 40.86 40.80 41.26 41.13 40.88 41.07 40.84 41.36 41.86 41.94 41.69 40.94 38.42 35.47 37.48 41.30 41.57 45.95 47.47 49.10 50.60 51.80 51.53 53.27 54.12 55.70 58.14 58.95 60.37 62.15 64.16 64.93 65.21 65.12 65.83
41.49 41.12 40.61 40.66 40.52 40.54 40.60 40.65 40.26 40.69 40.24 40.59 40.74 40.43 40.50 40.98 41.24 41.60 41.51 41.33 41.09 39.16 36.88 41.03 42.01 44.19 46.20 47.30 49.70 51.09 51.18 53.53 53.81 54.66 56.22 57.72 59.56 60.77 62.92 63.61 63.90 63.74 63.87
40.12 39.59 39.70 39.73 39.52 39.56 40.16 40.00 39.96 39.99 39.48 39.79 40.29 39.43 39.09 39.87 40.56 40.87 41.29 40.96 40.31 40.47 38.27 39.94 42.25 43.99 44.56 45.78 47.27 49.15 50.28 50.23 50.43 52.51 54.22 57.17 58.35 59.56 60.86 61.92 62.26 62.67 62.55
39.63 39.25 39.26 38.97 39.05 39.26 39.79 39.47 39.06 39.65 39.20 38.94 39.31 39.45 39.23 40.29 39.73 40.36 40.81 39.71 39.82 40.99 39.97 37.25 40.50 41.63 42.99 45.23 45.94 46.54 47.57 48.36 49.32 51.21 53.17 55.81 57.87 58.88 59.90 60.65 61.23 61.21 61.20
38.81 39.06 38.88 38.48 38.59 39.12 39.31 39.71 39.70 39.54 39.48 39.76 39.93 39.59 39.62 39.84 39.14 39.54 39.47 38.99 39.71 39.76 40.13 39.17 38.54 41.64 42.54 43.94 45.21 46.81 47.46 48.34 49.19 51.30 52.71 55.44 56.68 57.69 59.12 59.60 59.16 59.06 59.28
38.00 38.37 38.77 38.79 38.97 39.15 39.62 40.01 39.75 39.92 40.11 40.31 40.38 40.06 39.77 40.11 40.07 40.28 39.80 39.56 40.06 40.48 40.45 40.13 39.59 40.18 42.32 43.57 45.09 43.33 44.69 47.13 47.53 49.86 51.94 54.14 55.44 57.41 58.72 58.84 58.70 57.96 57.22
38.16 38.54 38.47 38.85 40.01 40.00 40.03 40.21 41.00 41.04 40.75 40.88 41.42 41.17 40.85 41.58 44.56 43.61 40.31 40.19 40.37 40.14 40.28 39.36 38.26 39.32 40.35 41.47 41.21 43.88 44.34 45.13 46.99 49.47 50.57 53.12 54.72 57.55 59.02 58.71 58.25 56.69 56.30
38.06 38.34 38.15 39.18 39.24 40.05 42.89 44.70 44.46 42.77 43.10 42.69 42.31 43.33 43.76 45.74 45.97 47.85 47.95 47.34 41.91 40.32 38.32 37.86 38.40 37.91 39.37 41.38 42.75 43.65 44.13 44.06 42.80 49.71 49.60 50.81 55.06 55.66 57.69 58.98 56.70 56.40 56.16
37.69 37.93 38.55 39.01 38.94 39.95 43.89 46.05 46.45 44.01 43.45 43.44 43.33 43.35 43.62 44.67 45.29 43.08 45.52 46.87 46.79 47.18 45.59 39.77 38.25 38.90 39.20 42.13 42.69 42.21 43.26 44.23 44.89 48.04 49.76 48.28 54.22 53.83 55.73 56.72 56.10 56.05 56.39
37.74 38.16 38.34 38.97 39.31 40.56 45.02 45.93 46.24 43.79 43.06 42.68 42.67 42.88 42.46 42.69 43.67 43.41 42.19 41.42 41.98 42.96 43.42 43.18 42.70 42.25 42.99 43.59 43.83 43.92 44.60 44.52 46.93 49.06 50.69 46.95 53.08 52.92 55.68 55.46 55.09 55.56 55.97
37.55 37.98 38.87 39.40 39.43 39.87 44.11 45.50 44.82 42.97 42.29 42.50 43.06 43.29 43.26 43.41 45.35 46.51 42.79 39.85 39.95 41.40 43.76 45.23 45.50 45.64 45.79 45.72 45.18 44.86 44.18 42.38 40.49 45.79 49.21 49.84 50.46 49.85 51.78 52.38 54.17 54.57 54.39
37.60 38.24 38.69 39.68 41.10 40.76 43.18 45.32 44.34 42.27 41.81 42.15 42.95 43.45 46.37 45.33 46.19 45.74 42.58 41.71 39.80 40.35 41.86 42.43 43.23 45.06 45.92 45.85 47.03 45.06 44.99 41.42 41.37 41.60 48.18 48.64 48.78 48.13 46.43 51.03 52.58 53.88 54.84

GFSMA_sfc_wetblb_069.txt.gz
Wetbulb
54.31 54.68 54.19 54.24 54.21 54.37 53.55 53.38 53.51 53.27 53.43 53.74 53.91 53.84 53.95 54.57 55.17 56.58 60.49 62.98 59.58 60.06 61.78 63.97 64.80 65.97 66.84 68.38 70.60 71.32 71.67 71.13 70.75 70.88 71.21 71.75 71.41 71.23 70.34 69.68 69.02 68.61 68.59
53.92 54.21 53.69 53.54 53.26 53.33 52.97 52.76 52.35 52.41 52.45 52.87 52.82 53.24 53.28 53.90 54.45 55.92 56.78 58.91 62.44 60.60 60.07 60.76 62.40 63.98 65.31 66.56 67.70 70.53 71.46 71.35 71.29 71.04 70.59 70.73 71.13 71.10 71.07 70.72 69.32 68.83 68.25
54.37 54.13 53.97 53.50 53.15 53.31 52.59 52.55 52.01 52.41 52.30 52.45 52.11 52.45 53.21 52.83 54.04 53.92 55.54 57.12 58.01 62.33 61.73 60.05 59.76 61.48 63.81 65.42 66.79 67.58 70.47 71.74 71.12 71.39 70.99 70.24 70.63 70.86 70.86 70.75 69.87 69.03 68.75
54.65 54.40 54.02 53.49 53.53 53.49 53.17 52.29 51.58 51.29 51.32 51.27 51.16 52.04 51.80 52.62 52.34 52.61 54.53 55.59 56.65 56.55 60.18 62.61 60.61 60.59 61.83 63.90 65.83 67.05 67.98 71.09 71.28 70.99 71.21 70.91 70.55 70.91 71.17 70.76 70.64 69.54 68.93
53.56 54.02 53.70 53.50 53.41 53.18 52.73 52.06 51.48 50.96 50.27 50.81 51.02 51.32 51.75 52.48 52.84 52.69 52.76 54.73 56.09 57.22 57.25 60.18 60.69 59.89 60.31 62.20 63.59 65.80 66.92 67.70 71.07 71.43 70.84 70.80 70.57 70.50 71.56 70.85 70.51 70.14 69.34
53.26 53.63 53.57 53.32 52.97 52.66 52.32 51.93 50.87 51.05 50.48 50.36 49.38 49.58 51.26 52.22 52.89 53.12 52.52 53.10 55.11 57.36 57.91 59.99 59.52 58.53 61.37 60.25 59.85 62.28 64.97 66.78 67.42 71.28 71.48 70.86 70.32 69.44 69.88 71.01 70.82 70.35 70.57
52.76 52.91 52.95 52.64 52.65 51.69 51.31 51.52 50.69 49.68 49.85 50.43 49.05 49.28 49.70 50.27 50.75 52.47 52.88 53.38 55.09 55.67 56.63 56.51 58.04 57.06 57.19 61.93 59.82 58.91 61.39 64.35 66.65 67.76 70.32 70.58 70.39 70.18 68.94 70.73 70.78 70.59 70.23
52.44 52.01 51.85 51.69 51.60 51.34 50.77 50.63 51.04 49.03 48.99 49.99 46.92 47.02 44.01 46.84 49.97 51.33 52.17 50.73 50.29 53.10 52.91 54.48 54.90 56.06 56.68 56.83 58.14 60.25 60.35 59.70 61.21 65.21 67.78 69.65 69.93 69.95 69.94 69.71 71.12 70.14 70.44
51.96 51.55 51.45 51.03 50.57 50.71 50.14 50.54 50.48 50.20 46.93 48.26 48.05 45.59 42.06 41.38 45.10 47.89 48.76 49.89 49.97 50.99 50.98 51.74 52.33 53.08 53.47 54.06 55.97 56.90 60.23 59.93 59.28 60.86 62.95 66.25 69.22 69.53 69.60 69.85 70.07 70.71 70.47
51.49 51.35 51.04 50.66 50.05 49.91 49.45 50.02 49.35 48.55 48.22 45.51 47.66 47.26 47.10 46.34 42.40 41.44 46.87 48.08 48.84 48.64 49.73 50.38 50.65 51.07 52.07 52.58 55.52 57.68 58.72 58.25 56.98 57.06 58.81 61.40 64.55 68.65 69.41 69.24 69.66 70.01 70.70
51.93 51.57 50.84 50.11 49.58 49.54 49.05 48.23 47.62 47.03 47.67 46.21 46.05 46.05 45.61 46.14 45.56 42.91 40.68 43.85 47.18 48.65 49.75 50.07 50.32 50.76 51.59 51.98 52.40 54.53 57.39 59.21 58.41 56.40 56.55 57.79 61.11 63.98 68.05 68.84 68.88 69.38 70.10
51.17 50.74 50.50 50.03 49.48 48.69 47.83 48.00 47.68 46.82 46.27 46.02 46.15 45.52 44.89 43.62 42.91 42.96 41.77 42.60 43.13 45.86 48.10 49.09 49.43 49.85 50.62 50.89 52.44 54.70 55.86 56.19 56.85 55.93 55.97 56.28 57.77 60.69 63.78 67.21 68.51 68.67 69.36
49.33 49.57 49.48 48.38 48.07 48.64 48.31 48.05 47.24 46.52 45.74 45.23 45.17 44.80 45.58 45.02 45.25 44.32 42.90 41.83 41.49 44.27 45.34 47.63 48.42 49.24 49.48 50.13 50.72 53.46 53.64 55.27 56.10 56.52 56.11 55.76 56.18 57.83 60.36 63.06 66.35 67.96 68.67
48.54 49.03 47.97 47.33 46.72 46.52 46.81 46.47 46.00 45.83 45.65 45.25 45.18 45.13 45.07 45.49 45.68 45.13 43.35 41.86 39.56 41.31 43.53 43.80 47.66 48.09 48.67 49.32 50.71 53.42 50.33 53.64 55.03 56.11 56.14 56.25 56.62 56.38 58.52 60.65 62.99 65.52 67.50
47.81 47.32 46.75 45.99 45.66 45.30 45.14 45.45 45.24 44.49 44.93 44.84 44.69 45.11 44.79 45.59 45.84 45.56 45.05 43.99 40.90 36.99 38.50 42.91 43.51 47.10 47.86 49.01 50.36 49.12 49.09 52.15 54.32 54.56 55.77 56.24 56.76 55.33 56.24 59.10 60.62 63.06 65.33
46.81 46.02 45.57 44.87 44.91 44.23 44.27 44.63 44.61 44.82 44.39 44.85 45.06 44.37 44.42 44.45 43.92 43.86 43.05 42.33 40.97 38.62 35.71 40.90 42.46 44.58 46.46 47.51 49.22 48.69 48.44 51.60 51.51 52.91 55.45 55.52 56.34 54.99 55.28 57.31 59.26 61.09 63.24
45.26 44.47 44.18 44.18 43.58 43.40 43.39 43.61 43.60 44.09 43.86 43.82 43.36 42.64 42.39 42.75 41.62 41.55 41.51 40.97 39.81 39.44 36.31 39.28 41.80 43.42 43.89 44.46 46.30 47.67 48.33 47.99 48.89 52.82 54.64 54.60 54.94 55.12 55.22 56.91 58.33 59.96 61.16
44.41 43.64 43.24 42.69 42.45 42.95 43.20 43.06 42.83 43.39 42.91 41.74 41.72 41.88 41.78 42.22 41.36 42.30 42.18 41.18 40.95 41.47 39.20 36.87 39.87 40.68 41.36 43.56 44.39 45.09 46.51 47.49 47.96 51.60 53.73 55.03 54.38 54.97 54.41 55.04 57.15 58.61 59.40
42.87 42.79 42.52 42.10 42.21 42.86 42.87 43.30 43.19 42.61 41.98 42.33 42.14 41.50 41.50 41.34 41.22 42.05 42.09 41.24 41.45 41.66 41.36 39.69 38.70 41.24 41.43 41.99 41.80 43.31 44.47 45.88 47.22 50.25 51.50 52.56 53.38 53.82 53.80 54.10 55.31 57.71 57.91
41.92 41.91 42.19 42.25 42.90 43.05 43.07 42.12 42.03 41.62 42.01 42.55 42.75 42.58 42.29 42.10 41.13 40.97 41.26 41.65 41.43 40.34 40.16 39.34 38.82 39.16 40.41 41.88 41.44 39.82 40.86 44.07 44.93 46.97 49.53 51.05 52.23 52.53 52.65 53.23 54.92 56.91 56.71
41.86 42.08 41.98 42.49 42.73 42.28 41.92 41.86 42.22 42.11 42.07 42.56 43.53 43.28 43.40 44.57 46.85 45.90 42.58 41.51 41.11 40.24 39.66 39.08 38.52 38.75 39.58 39.73 39.22 40.58 40.40 42.52 44.37 46.16 46.47 47.29 48.35 48.72 49.36 54.05 52.64 55.34 56.26
41.39 41.68 41.72 41.09 39.73 40.69 43.19 44.28 43.79 42.35 42.93 43.03 43.00 44.09 44.36 45.85 46.36 48.14 48.61 48.73 46.96 41.19 39.55 38.88 38.39 38.32 39.96 40.99 41.55 40.52 41.23 41.19 39.82 46.27 44.72 45.60 48.40 48.24 50.30 51.39 54.74 54.91 55.32
40.97 41.01 40.65 39.68 39.42 40.38 43.77 45.02 45.47 43.40 43.37 43.10 43.72 43.71 43.92 44.96 45.76 44.42 46.36 47.68 47.62 48.47 48.59 41.97 39.40 39.80 40.32 42.29 42.04 40.72 40.98 41.07 40.85 44.05 44.53 43.26 47.43 46.38 49.57 51.70 54.07 54.69 54.54
40.28 39.53 39.27 39.58 39.72 40.60 43.85 44.96 45.64 43.34 43.47 43.52 43.55 43.57 43.29 43.48 44.19 43.99 43.59 43.19 43.34 43.67 43.93 45.18 44.01 42.27 42.80 43.98 43.26 42.60 42.73 42.15 43.45 43.87 45.08 41.41 46.05 46.33 49.15 50.68 53.67 54.33 55.15
37.99 38.12 39.07 38.77 38.84 40.03 43.48 44.62 43.97 42.67 42.54 42.50 42.61 43.67 42.70 42.38 45.56 46.89 44.04 44.43 43.64 43.28 46.15 47.67 47.76 47.34 47.15 46.28 44.67 42.41 40.69 40.75 39.88 41.44 44.98 43.84 44.60 45.54 47.43 48.65 52.47 53.56 54.15
37.29 38.25 38.13 39.10 40.61 39.67 42.59 44.04 43.81 42.34 41.64 41.04 41.34 42.02 42.63 43.32 46.14 46.48 44.01 44.34 43.43 42.66 42.76 42.82 43.80 45.10 46.04 45.50 46.81 44.44 42.85 40.44 40.90 40.70 44.40 43.73 44.35 45.88 44.09 48.87 51.12 52.83 54.10

GFSMA_sfc_wetblb_072.txt.gz
Wetbulb
48.53 49.05 48.33 48.73 48.43 48.59 47.81 47.65 47.42 47.67 47.43 48.28 48.46 47.84 47.25 47.53 48.37 49.96 51.28 63.34 62.19 60.18 60.34 60.85 62.57 64.99 65.85 66.82 68.16 69.76 71.18 71.35 70.68 70.91 71.17 71.33 71.46 71.33 70.75 69.89 69.33 69.11 68.52
48.47 48.97 48.46 48.55 48.04 47.94 47.45 47.11 46.17 46.65 47.03 47.51 48.00 47.86 47.05 46.98 47.68 48.59 50.23 51.33 63.46 63.46 61.04 60.38 60.39 61.14 63.06 65.59 66.64 67.49 69.09 71.29 71.02 71.38 71.45 70.95 71.03 71.44 71.29 70.95 69.60 69.12 68.44
49.30 49.32 48.75 48.07 47.83 48.34 48.43 47.87 47.19 47.55 46.94 48.02 45.87 47.05 47.35 47.22 47.71 47.17 47.90 49.90 52.47 60.30 63.85 61.37 60.01 60.46 61.01 62.94 65.35 66.69 67.64 68.47 71.64 71.03 71.45 70.83 70.69 71.01 71.01 70.85 70.13 69.33 68.78
49.99 49.28 48.87 48.04 48.12 48.54 48.27 47.31 46.71 46.16 45.69 45.34 44.68 45.58 45.71 46.39 46.81 46.98 48.30 48.65 49.79 52.00 56.38 62.26 59.69 60.64 60.71 61.24 61.77 64.42 66.77 67.53 68.54 70.97 71.09 71.10 70.95 71.08 71.32 70.85 70.75 69.88 69.18
50.20 49.19 48.67 48.19 48.55 48.35 47.86 47.48 46.57 45.50 44.42 44.54 45.77 44.52 44.78 45.44 46.21 49.54 46.66 47.47 48.60 50.74 50.89 57.85 61.57 61.70 60.31 60.99 61.81 61.94 63.61 66.25 67.38 69.41 70.57 71.01 71.08 70.78 70.70 71.62 70.83 70.49 69.67
49.53 48.56 48.76 48.21 48.11 47.23 47.09 46.32 44.70 45.17 44.54 44.40 47.68 46.73 44.14 44.95 45.46 45.55 46.19 48.54 48.50 50.22 50.71 51.63 53.98 55.31 60.37 59.73 61.12 60.11 59.88 62.10 65.55 67.11 68.59 69.85 70.44 70.32 69.89 70.84 71.49 70.82 70.43
48.99 47.44 47.55 47.07 47.09 45.97 45.21 45.93 44.89 43.86 43.22 44.16 42.31 42.34 42.69 45.90 44.32 43.83 44.59 45.89 46.50 47.27 49.11 50.62 51.68 52.63 52.87 61.65 62.90 60.41 59.73 60.64 62.81 64.38 66.91 67.99 69.67 69.97 70.05 69.98 71.49 71.27 70.72
48.54 47.94 46.26 46.26 46.04 44.94 44.73 44.70 44.17 43.05 42.76 43.38 39.90 39.25 37.21 40.21 42.22 44.47 43.68 44.71 43.90 44.53 46.07 47.20 46.45 47.88 49.15 50.24 53.27 60.28 60.05 58.30 59.09 59.55 61.34 65.25 67.60 69.03 69.61 70.02 70.64 71.04 71.19
48.27 47.09 46.30 45.19 44.61 44.30 43.64 43.80 43.59 42.80 40.67 41.50 41.50 39.14 35.73 34.34 39.71 42.17 41.16 42.94 42.64 43.31 43.13 44.66 45.76 46.41 46.38 46.11 50.81 52.77 57.87 60.31 58.98 59.29 60.15 61.52 63.90 66.70 68.85 69.31 69.41 70.83 71.16
47.64 47.18 46.57 45.69 44.50 44.03 43.25 43.02 44.83 41.49 40.37 38.67 40.24 43.80 40.13 38.50 36.85 36.41 39.59 40.84 42.32 43.58 42.70 43.46 44.18 44.87 44.85 45.07 51.02 55.15 58.15 59.86 59.00 58.48 58.27 58.89 60.03 62.48 65.28 67.89 68.97 69.24 70.58
47.39 47.21 46.44 45.17 44.24 43.79 43.20 42.41 41.80 40.97 40.36 38.90 38.25 38.41 38.01 38.26 38.16 37.81 36.10 38.52 40.04 41.44 42.10 42.77 43.58 43.99 44.57 45.15 45.66 49.43 56.34 56.96 57.34 57.44 57.61 57.59 58.33 59.04 62.15 64.54 67.51 69.01 69.05
45.92 46.10 46.31 44.63 44.08 43.19 42.46 42.05 41.47 40.74 40.12 39.60 39.22 38.72 37.79 36.86 37.29 36.98 36.91 37.60 37.85 40.07 41.04 41.93 42.53 42.42 43.69 44.51 49.41 54.68 55.08 55.66 56.02 56.02 55.60 56.56 57.27 57.79 58.89 61.88 64.41 67.52 68.67
43.52 44.05 44.21 43.25 42.30 42.29 42.41 41.95 40.90 40.22 39.73 38.81 38.33 39.29 39.10 39.65 39.84 39.34 38.26 37.43 36.89 39.11 38.68 40.74 41.47 42.58 45.36 43.72 44.48 52.45 53.45 54.04 54.90 54.91 54.96 55.61 55.70 56.75 57.45 58.51 61.19 63.33 65.42
43.02 43.89 43.28 42.67 42.08 41.93 41.37 40.67 39.51 39.33 39.21 38.66 37.94 38.00 39.24 39.70 39.99 40.30 38.99 37.52 35.86 37.12 38.65 37.55 40.79 41.79 43.67 43.39 45.88 52.92 49.02 54.03 54.25 53.69 53.19 53.53 57.07 55.55 56.48 57.15 58.66 60.91 63.13
44.82 43.01 42.43 41.68 41.23 40.88 40.48 39.58 38.57 38.32 38.84 38.75 39.00 38.75 39.20 40.13 40.45 40.33 39.85 40.00 38.90 34.62 34.68 36.50 36.43 40.63 42.38 43.28 45.40 45.55 44.02 49.58 52.04 53.42 54.82 54.86 55.33 56.13 55.10 56.20 56.85 59.16 60.88
42.32 41.90 41.17 40.40 40.04 39.89 39.42 38.53 37.73 38.58 38.65 39.30 40.52 38.89 38.78 40.34 42.29 42.48 41.84 41.29 40.34 37.82 34.18 36.35 37.59 38.66 41.24 43.06 44.30 44.60 44.18 49.91 51.18 50.95 52.51 52.70 53.65 56.51 56.65 56.51 56.95 58.51 60.01
40.80 40.10 39.98 39.49 38.96 38.39 38.26 37.59 37.49 38.32 38.67 38.85 39.30 40.68 41.44 41.85 41.01 41.13 41.12 40.68 39.61 39.07 35.71 36.99 37.78 39.12 38.83 39.43 41.17 42.05 43.51 43.56 43.68 50.40 50.71 52.59 53.20 55.05 56.30 56.09 56.33 57.13 58.35
39.51 39.29 38.95 38.52 38.40 38.41 37.89 37.49 37.81 38.97 38.84 38.76 40.62 40.77 40.57 41.88 40.79 40.89 39.83 38.27 38.21 38.52 36.87 34.75 37.31 38.01 38.17 39.39 39.78 39.53 41.84 43.98 43.56 47.77 50.32 52.86 53.09 53.69 54.56 55.12 55.16 56.04 56.98
38.00 38.07 38.39 37.76 38.32 38.83 39.19 39.58 39.65 40.00 40.90 40.66 40.70 40.45 40.67 40.67 39.83 40.15 40.08 39.93 40.27 39.99 38.82 37.80 37.31 39.20 39.50 40.00 39.23 39.19 39.44 39.96 42.88 46.92 49.07 50.41 52.25 52.71 53.85 54.38 54.77 54.44 54.91
37.91 37.53 37.82 38.71 39.12 39.72 39.32 39.31 39.44 40.04 40.50 40.97 41.41 41.54 41.40 41.03 40.18 40.37 40.65 39.75 39.65 39.78 39.88 38.76 38.38 38.90 39.76 39.68 38.90 37.84 37.14 38.71 39.52 43.78 46.30 48.25 49.57 51.19 52.96 53.20 54.20 54.21 53.85
37.88 38.02 38.55 38.84 38.89 38.33 39.53 39.37 40.15 40.31 40.67 40.96 41.70 42.00 42.54 43.75 46.94 46.48 44.18 42.47 40.99 39.90 39.47 38.87 37.89 38.32 38.31 38.34 37.11 38.52 37.41 38.01 38.40 40.32 41.48 44.20 43.74 44.07 46.15 52.75 51.92 52.10 52.44
36.33 37.58 37.39 37.64 36.44 39.15 43.00 43.71 43.05 41.30 41.79 41.86 41.80 43.00 42.35 44.90 45.30 47.38 47.83 48.18 46.78 43.27 39.71 39.01 38.77 37.95 38.47 39.04 39.52 38.59 37.47 36.13 35.29 41.33 40.56 40.57 44.89 42.69 45.17 45.44 49.98 52.09 52.56
35.19 35.72 35.27 36.22 36.91 38.92 43.40 44.61 45.03 42.30 42.38 42.21 42.31 42.33 41.44 43.37 44.23 42.27 45.14 46.83 46.49 47.42 47.32 44.07 40.46 39.68 39.67 40.73 40.73 39.68 38.59 37.27 37.21 39.99 40.47 39.77 41.25 43.69 45.51 48.36 51.84 51.73 53.67
34.91 33.99 35.36 37.45 37.76 38.56 42.89 43.96 44.90 42.35 42.03 41.64 42.08 41.52 41.58 40.91 41.87 41.87 41.17 41.90 43.19 43.53 43.72 44.25 43.28 43.38 42.23 42.93 42.48 42.35 41.13 39.25 39.06 40.69 40.78 37.34 40.11 40.35 43.54 44.70 50.43 52.13 53.86
33.78 36.46 37.06 36.97 37.04 37.87 42.72 44.10 43.37 41.40 40.82 41.16 41.73 40.72 40.92 40.24 43.54 44.77 42.13 41.64 42.11 42.80 47.02 49.23 48.89 47.23 47.40 46.71 45.35 43.30 40.74 39.28 38.23 38.82 42.81 39.50 40.38 40.28 41.72 43.39 45.78 50.71 52.09
35.41 37.03 36.64 37.60 39.72 38.24 42.05 43.63 43.29 41.76 39.88 40.38 39.89 40.17 42.56 41.98 44.20 44.49 42.03 42.01 40.40 41.66 43.86 44.19 44.93 45.68 46.48 46.96 48.17 44.25 41.13 38.53 38.41 38.19 41.24 40.21 41.04 42.19 39.36 43.34 45.56 47.08 49.08

GFSMA_sfc_wetblb_075.txt.gz
Wetbulb
45.97 45.85 45.48 45.81 45.52 45.55 44.99 44.76 44.49 45.20 45.24 46.07 46.36 45.85 45.12 44.94 45.32 46.92 47.43 57.88 63.30 62.05 60.93 59.84 60.45 61.14 63.34 65.56 66.56 67.64 68.94 70.65 70.60 70.79 71.27 71.34 71.34 71.16 70.60 69.91 69.82 68.95 68.50
46.10 46.13 45.98 45.83 45.58 45.38 45.44 45.17 44.45 44.94 44.99 45.17 46.17 46.03 45.49 45.00 45.37 45.64 46.27 47.10 58.73 62.70 61.46 60.13 60.25 59.97 60.97 61.56 64.17 66.26 67.18 68.23 70.58 70.62 71.53 70.88 70.80 71.26 70.96 70.76 69.71 69.42 68.51
46.98 46.52 45.76 45.18 44.97 45.83 46.51 45.73 45.76 45.46 45.05 45.98 43.80 44.79 45.32 44.77 45.21 45.11 45.75 46.54 48.66 56.06 59.74 61.77 59.26 59.34 60.30 61.08 61.77 62.32 65.58 67.33 67.86 70.43 70.84 70.29 70.72 71.10 71.01 70.73 70.13 69.51 68.84
47.70 46.81 46.20 45.49 45.80 46.55 46.30 45.12 44.78 44.44 43.88 43.35 42.27 43.31 42.21 43.68 44.28 44.62 45.77 45.74 46.18 48.16 52.48 57.61 60.12 58.04 59.37 60.40 61.15 61.96 62.55 65.46 67.43 67.76 69.80 70.38 70.41 71.22 71.36 70.95 70.79 70.07 69.31
48.55 46.76 46.10 45.76 46.39 46.13 45.68 45.03 44.27 43.11 42.35 42.77 44.43 43.74 42.78 42.91 43.14 46.64 43.46 44.82 45.38 47.08 48.31 54.83 61.06 61.43 59.33 59.89 60.36 61.17 60.47 60.96 64.10 66.85 67.64 69.41 69.59 70.12 71.04 71.72 70.98 70.48 69.92
48.00 46.77 46.46 45.89 45.82 45.04 44.33 43.93 42.90 43.31 42.44 42.23 45.88 44.77 41.79 43.39 42.57 41.70 42.02 45.33 45.31 45.72 46.57 48.98 50.39 53.37 60.92 59.55 58.84 59.74 60.41 59.80 60.54 62.32 65.81 67.25 68.34 69.29 69.65 70.13 71.49 71.28 70.36
47.47 45.91 45.74 45.16 45.10 44.27 43.54 43.67 42.73 42.05 41.48 41.56 40.02 39.89 40.38 41.67 40.15 39.97 41.13 41.09 43.07 43.63 43.51 44.87 45.49 49.29 51.23 58.25 60.29 59.52 59.79 59.73 59.22 60.74 60.63 62.37 66.35 68.17 69.37 69.40 69.97 71.37 71.20
47.06 46.27 45.04 44.71 43.90 43.25 42.54 42.14 41.78 40.64 40.79 40.98 38.38 36.42 35.29 37.73 39.25 42.93 44.09 41.74 43.65 42.09 43.19 44.04 43.15 43.56 43.75 45.35 49.36 57.42 58.47 58.09 57.99 58.68 59.30 59.84 61.86 65.49 67.55 68.58 69.24 69.65 70.77
47.15 46.08 44.89 44.04 43.12 42.17 41.62 41.16 41.02 40.19 38.56 39.35 39.10 37.83 34.04 32.41 37.28 38.96 39.12 40.52 39.47 40.65 41.16 41.32 42.55 43.57 43.35 42.59 46.57 48.85 54.68 57.17 56.99 57.77 58.88 59.54 60.58 61.57 64.41 66.39 68.57 69.03 69.82
46.26 45.95 44.86 43.89 42.94 42.04 41.16 40.83 43.34 39.67 38.03 36.86 37.73 41.52 37.58 36.42 33.80 34.02 36.74 37.95 39.68 40.74 39.69 40.17 41.50 42.43 42.82 42.78 47.95 51.95 54.93 57.63 55.61 56.15 57.71 58.68 59.15 59.58 60.37 62.85 65.64 67.22 68.85
45.94 45.28 44.22 43.39 42.15 41.35 41.10 40.41 39.74 38.91 38.21 37.24 36.57 36.34 35.54 35.94 35.56 34.15 34.43 36.97 37.15 38.77 39.58 40.09 40.15 40.27 41.71 42.50 42.88 46.89 53.63 56.34 56.12 54.71 55.05 56.60 58.24 58.77 59.36 59.96 61.82 64.48 66.14
43.59 44.01 44.32 42.39 41.68 40.94 40.57 40.38 39.63 38.47 38.09 37.35 37.13 36.64 36.06 34.99 35.32 33.36 33.56 35.06 35.57 37.88 37.90 39.03 39.26 40.18 40.96 41.65 47.07 51.42 52.27 53.14 54.98 54.75 54.22 54.76 55.96 57.11 58.28 59.06 59.82 61.25 63.87
41.28 41.82 41.84 41.19 40.42 40.29 40.23 39.63 38.73 38.05 37.73 36.95 36.73 36.70 36.73 36.87 37.69 37.67 35.86 35.86 35.17 37.41 36.60 37.98 39.08 39.93 42.82 41.24 41.77 49.30 51.07 52.19 53.96 53.32 53.19 53.64 54.40 55.39 56.38 57.41 58.55 59.25 60.41
40.86 41.95 41.51 40.89 40.55 40.43 39.95 38.99 37.48 37.33 36.88 36.59 35.93 35.61 36.29 36.75 37.17 37.13 37.18 35.90 34.96 36.42 37.21 35.90 37.89 38.59 39.20 40.07 43.97 48.61 43.81 49.30 50.92 53.17 54.28 53.92 53.19 53.76 55.15 56.21 56.86 57.87 58.41
43.26 41.95 40.95 40.28 40.08 39.65 38.94 38.05 36.74 36.23 36.43 36.17 36.27 36.50 36.87 38.14 37.60 38.08 37.72 38.01 37.73 34.26 34.79 35.47 34.83 38.30 39.60 41.63 43.81 43.41 41.92 46.88 49.78 50.80 53.56 53.45 52.57 53.02 53.79 54.56 55.70 56.29 57.25
40.25 39.89 39.53 38.70 38.20 38.07 37.80 36.65 35.52 35.95 35.61 36.30 38.03 36.24 36.77 37.61 37.86 40.76 41.56 41.12 40.26 37.77 34.36 37.85 35.75 36.49 38.50 41.77 42.97 42.79 41.89 46.62 48.11 48.97 50.00 52.89 52.59 51.82 52.45 53.62 55.80 56.59 57.20
37.95 37.83 37.97 37.55 37.10 36.62 36.34 35.30 34.88 35.27 35.04 35.68 36.21 36.37 37.11 38.10 40.84 41.05 41.04 40.72 39.75 39.14 35.84 37.39 36.71 37.04 36.02 37.16 39.73 40.73 41.58 39.53 40.96 47.42 48.86 50.08 52.51 52.07 52.57 53.73 55.72 56.73 56.83
37.21 37.12 37.06 36.70 36.55 36.79 36.39 35.50 35.29 36.42 35.83 36.89 36.53 39.16 39.80 41.06 40.41 40.80 40.49 39.83 39.47 39.36 37.60 34.76 37.05 37.13 36.27 38.36 39.15 38.62 40.81 42.74 41.07 45.41 47.55 48.99 50.01 52.38 53.00 53.46 54.82 55.81 55.88
36.17 36.25 36.48 35.86 36.58 37.37 37.42 36.67 37.04 36.83 36.83 37.94 39.58 39.57 39.66 39.99 39.51 40.23 39.92 38.61 38.75 39.59 38.54 36.71 36.34 38.21 38.53 38.75 38.28 38.75 38.87 39.34 41.19 45.46 47.23 47.68 48.94 50.07 52.22 52.46 53.31 54.43 54.51
35.27 35.25 35.40 36.20 37.05 37.82 37.26 37.23 36.71 35.94 36.55 38.90 40.33 40.94 40.87 40.57 39.86 39.25 39.32 39.50 39.53 38.90 39.12 38.47 38.28 37.94 38.48 39.80 39.96 38.11 37.26 37.87 38.23 41.87 44.60 45.84 46.98 48.41 49.77 51.79 53.28 53.73 53.74
35.54 35.08 35.59 36.29 35.64 36.77 38.51 38.05 38.82 39.53 39.80 39.89 40.51 41.03 41.66 43.07 45.94 45.74 43.70 42.52 42.20 40.01 39.47 39.06 37.99 38.60 38.66 38.03 37.07 38.81 37.25 38.01 38.15 38.92 38.96 39.61 40.68 42.05 43.49 47.72 50.51 52.87 52.86
33.80 34.31 34.01 34.52 34.24 37.34 41.94 43.18 42.19 40.72 41.28 41.15 41.38 42.45 43.19 43.99 44.41 46.86 46.99 47.39 45.38 42.19 41.07 40.01 39.04 38.20 38.86 39.27 39.57 38.18 37.41 35.90 34.34 38.37 37.34 38.12 40.83 40.36 42.14 42.58 48.63 51.94 52.33
32.50 32.31 32.63 33.42 33.35 36.50 42.17 43.48 44.05 41.25 41.34 41.65 41.54 41.55 41.78 42.34 43.52 42.19 43.78 45.58 45.23 45.71 45.37 42.37 40.76 39.87 39.36 40.63 40.63 39.63 39.28 38.41 37.35 37.60 37.71 36.90 39.52 39.21 43.11 47.04 50.39 50.98 51.77
31.91 31.48 32.59 33.52 36.67 37.53 42.24 43.55 44.36 41.65 41.06 41.16 40.70 40.97 40.74 40.27 40.71 40.87 40.64 40.87 40.78 41.14 42.49 43.28 43.20 43.05 43.58 42.54 42.60 42.04 41.14 40.50 40.90 39.19 38.71 36.03 38.14 38.76 40.96 42.06 47.82 50.36 51.22
30.90 32.08 33.41 35.59 36.19 36.42 42.20 43.28 42.81 41.07 40.56 40.91 40.72 40.91 40.13 39.56 42.87 44.31 40.79 40.20 39.22 40.55 44.47 47.10 47.66 48.10 48.93 48.19 45.57 42.61 40.54 39.44 38.13 38.63 38.86 38.45 37.62 37.70 39.16 40.41 42.61 47.97 49.95
32.75 34.29 34.60 36.90 39.30 37.32 41.12 42.93 42.73 41.10 37.78 39.73 39.43 39.60 41.81 40.75 43.30 43.50 39.78 39.30 38.97 39.45 40.90 41.88 43.53 45.06 46.01 48.34 48.46 43.72 41.89 39.55 39.15 37.82 40.99 38.54 38.03 38.09 36.50 40.66 42.59 44.19 44.71

GFSMA_sfc_wetblb_078.txt.gz
Wetbulb
44.38 45.00 44.50 44.65 43.95 44.24 43.79 43.46 43.62 43.84 43.87 44.56 44.67 43.94 43.55 43.22 43.64 45.20 45.13 55.45 58.73 60.65 60.95 60.27 60.68 60.45 61.17 61.98 64.01 66.30 67.27 68.55 70.23 70.54 71.22 71.23 71.06 71.00 70.39 69.85 69.79 69.14 68.65
45.25 45.22 44.50 44.44 44.18 44.10 43.75 43.69 43.49 43.32 43.11 43.31 44.41 44.28 43.22 42.77 43.36 43.71 44.82 45.13 55.82 58.16 60.13 59.88 59.67 59.24 60.37 61.21 62.12 63.60 65.37 67.13 67.93 69.92 70.74 70.89 70.84 70.80 70.67 70.61 69.94 69.23 68.57
45.51 44.65 44.16 43.97 43.55 44.52 44.75 44.41 44.26 43.86 43.75 44.65 42.58 43.59 43.50 42.74 43.40 43.26 44.27 44.82 46.14 52.81 56.34 58.87 59.19 58.83 58.91 60.50 61.31 61.58 62.15 64.10 67.13 67.76 69.36 69.89 70.37 70.95 70.87 70.38 70.16 69.78 68.90
46.44 45.10 44.80 44.08 44.39 45.07 44.75 43.88 43.33 42.93 42.64 42.19 41.61 42.63 42.26 42.66 42.64 42.73 43.72 43.32 43.58 46.05 50.19 56.59 60.01 58.01 58.08 59.59 60.45 61.04 61.76 62.33 64.70 67.06 67.65 68.79 69.43 70.22 71.02 70.77 70.32 70.05 69.49
47.38 45.37 44.73 44.62 45.21 44.68 44.07 43.55 43.14 42.39 41.85 42.05 43.57 42.91 41.78 41.46 41.16 44.34 41.05 42.65 43.73 44.20 45.10 51.48 57.40 59.39 60.23 58.76 59.35 59.94 60.98 60.26 60.32 62.33 65.77 67.27 68.00 69.09 69.33 70.53 70.65 70.19 69.96
47.21 45.76 45.22 44.88 44.34 43.74 43.15 42.50 42.07 42.15 41.55 41.30 44.60 43.26 40.81 40.73 39.68 39.74 39.91 42.80 42.18 42.86 42.57 43.70 44.77 47.67 55.69 59.38 61.25 60.00 59.83 60.32 59.94 61.22 62.77 63.77 66.44 67.67 68.61 69.09 70.18 70.41 69.96
46.39 45.13 44.87 44.20 43.93 43.29 42.41 42.45 41.80 41.17 40.89 40.36 38.79 38.71 38.41 39.52 37.70 38.91 39.34 39.13 41.06 41.82 41.63 42.62 42.34 42.63 44.45 53.38 54.42 56.31 58.12 59.80 59.65 59.16 59.24 59.89 60.85 62.58 66.19 68.26 68.78 69.38 70.13
45.90 45.25 44.22 44.06 43.17 42.69 41.52 41.22 40.62 39.56 39.75 39.38 37.43 34.90 33.87 36.53 38.15 40.95 41.17 39.68 39.62 39.92 42.50 42.50 40.54 41.36 41.61 42.52 46.84 54.06 54.95 56.20 56.93 57.66 58.20 58.91 59.53 60.73 63.23 66.03 67.47 68.71 69.04
45.65 45.28 43.98 43.35 42.50 41.48 41.26 40.29 39.98 39.18 37.78 38.07 37.61 36.94 32.88 30.88 33.65 37.09 38.07 39.00 37.62 39.18 38.94 39.64 40.85 41.24 41.29 41.06 44.73 47.56 53.43 55.69 56.41 56.43 57.25 58.12 59.52 60.04 60.71 62.75 64.64 66.46 68.51
45.39 45.20 44.15 42.81 41.62 40.89 40.23 39.70 41.59 38.73 37.28 35.99 36.57 39.81 36.44 35.78 32.99 32.35 35.28 36.65 38.51 38.53 38.00 38.48 39.49 40.20 40.06 40.79 45.63 49.05 51.75 54.07 54.22 54.55 56.14 56.92 58.06 59.20 59.70 59.95 60.60 63.15 65.74
44.01 44.06 42.80 41.76 41.08 40.26 39.70 39.56 38.71 37.64 37.09 36.40 35.72 35.22 34.22 34.36 33.86 32.85 33.42 34.42 37.03 36.92 37.80 38.00 38.48 38.69 39.55 40.04 40.75 44.89 51.17 52.19 53.23 54.29 54.50 55.32 56.25 57.40 58.69 59.37 59.87 60.44 62.03
42.30 42.42 42.97 41.38 40.82 40.05 39.52 39.32 38.40 37.30 36.93 35.94 35.90 35.41 35.03 34.04 33.00 32.27 30.64 33.21 34.54 36.19 36.56 37.78 37.65 38.40 39.63 40.20 45.21 48.95 50.31 50.97 52.30 52.92 53.65 54.26 55.19 55.99 56.97 58.00 58.98 59.60 60.34
40.37 40.75 40.89 40.28 39.55 39.55 39.39 38.64 37.63 36.93 36.38 35.40 35.33 35.33 35.45 35.57 36.15 34.81 34.25 34.56 33.21 36.38 35.66 36.16 37.87 38.62 41.09 39.66 40.36 47.50 49.27 50.01 50.56 51.82 52.97 53.48 53.86 54.51 55.31 56.13 57.13 58.08 58.97
39.73 40.61 40.38 39.74 39.64 39.42 39.00 38.11 36.47 36.32 35.60 35.15 34.51 34.21 35.08 35.29 35.66 36.12 35.75 33.90 33.65 35.05 36.04 35.41 37.14 37.90 38.35 38.82 41.22 48.88 43.26 48.07 49.03 49.85 51.24 52.59 53.98 53.57 54.08 54.82 55.62 56.54 57.27
41.84 40.40 39.33 38.78 38.56 38.17 37.59 36.58 35.41 35.00 35.00 34.53 34.48 34.54 34.55 35.90 35.90 36.65 36.77 36.64 35.01 32.22 33.68 35.16 34.23 37.20 38.52 39.22 41.35 42.88 41.53 45.40 48.16 48.85 49.75 51.05 52.06 53.88 53.32 53.70 54.44 54.91 55.54
38.14 37.48 37.25 36.87 36.68 36.42 35.99 35.01 34.13 34.47 33.74 34.13 35.71 34.16 34.38 35.73 36.00 36.84 36.98 37.77 39.32 37.66 34.11 37.21 36.48 36.11 38.23 41.30 42.27 42.43 41.09 46.16 47.39 48.22 48.42 49.49 50.46 52.06 52.68 53.12 53.07 53.42 54.54
36.28 36.47 36.57 36.12 35.76 35.43 35.11 33.91 33.41 33.60 33.42 33.53 33.93 34.26 35.38 36.08 36.50 38.15 39.58 40.29 39.48 39.09 35.93 37.43 38.17 37.44 34.97 36.97 39.07 39.40 40.19 39.16 40.28 46.75 47.77 48.16 49.28 50.46 51.79 52.59 52.28 52.58 53.79
35.93 35.85 35.80 35.44 35.18 35.11 34.77 33.97 34.23 35.00 34.19 34.20 35.02 35.46 36.56 40.19 39.30 38.16 39.35 39.39 39.33 39.58 38.01 35.18 37.33 36.74 34.73 37.03 37.96 38.05 39.58 41.75 40.73 44.87 47.30 47.97 48.29 49.31 50.50 51.52 52.98 53.53 53.94
34.66 34.81 34.92 34.25 34.60 35.13 34.92 34.85 34.60 35.04 35.37 35.39 35.92 36.09 36.49 37.49 37.84 38.73 38.16 38.20 38.34 38.84 37.82 36.34 35.97 37.79 37.78 38.11 37.18 37.30 38.10 38.56 40.63 44.92 46.95 47.93 48.34 48.57 48.99 50.55 52.02 52.29 52.87
33.85 33.67 33.84 34.48 35.04 34.98 35.47 35.76 35.58 35.19 35.65 36.89 37.18 38.65 39.60 39.41 38.80 38.25 38.82 38.57 38.59 37.92 37.94 37.75 37.86 37.85 38.05 39.04 38.13 36.96 36.69 37.21 38.07 41.31 44.14 45.63 46.54 47.11 47.50 49.26 51.75 51.41 52.14
34.03 33.75 33.77 34.03 34.09 35.34 37.01 36.42 37.44 37.45 37.94 38.57 39.79 40.92 41.08 42.74 45.79 44.96 42.11 40.89 40.57 39.31 39.08 38.66 37.96 38.41 38.38 38.65 38.15 39.03 37.78 38.65 38.12 38.42 38.60 39.04 39.77 40.46 41.40 45.57 49.23 50.68 50.81
32.92 33.07 32.77 32.49 32.97 35.90 41.01 42.43 41.39 39.84 40.29 40.32 39.70 40.75 42.17 43.62 43.29 46.00 46.57 46.70 45.29 42.24 41.04 40.48 39.47 37.69 38.63 39.71 40.32 39.82 38.97 37.47 35.59 38.62 37.01 37.48 39.62 38.70 39.99 40.79 45.51 48.24 49.76
31.60 31.00 30.73 31.33 32.17 33.31 41.36 43.03 43.28 40.86 40.94 41.10 40.74 40.55 40.35 41.70 42.53 40.93 43.09 45.09 44.40 45.30 45.17 41.58 39.52 39.64 39.74 40.90 40.77 39.97 39.63 38.89 37.71 38.01 37.79 35.26 37.53 37.57 40.61 43.39 47.17 48.77 50.26
30.42 29.67 30.71 32.25 32.72 34.57 41.73 42.87 43.66 41.07 40.17 40.68 40.40 40.33 39.88 40.10 39.95 40.70 39.90 39.56 40.15 40.58 41.26 41.48 40.47 40.06 40.83 43.15 42.70 41.68 40.94 40.41 40.99 41.37 41.61 36.62 36.86 37.11 39.40 40.44 47.07 48.82 50.20
29.87 30.97 32.62 32.21 31.86 34.08 41.70 42.81 42.18 40.29 40.50 39.60 39.41 39.63 40.22 38.54 41.99 43.67 39.79 39.01 38.79 39.65 43.35 45.35 45.60 46.50 47.24 47.99 47.31 43.90 40.75 39.49 38.41 39.41 41.38 38.79 38.07 36.16 37.60 38.38 40.56 46.54 48.73
31.47 32.61 32.77 33.31 36.82 36.41 40.30 42.02 42.03 40.59 38.75 39.88 38.73 39.43 41.84 40.57 42.68 42.84 38.74 37.78 36.24 37.58 39.86 40.36 40.66 42.46 44.89 44.40 46.73 43.19 42.69 39.75 38.94 38.12 41.16 37.48 37.27 36.45 35.01 38.53 40.68 41.41 41.75